     2.10           OBSERVATION DATA    G (GPS)             RINEX VERSION / TYPE
teqc 2002Mar14 Lou Estey 20020315 16:27:19UTC               PGM / RUN BY / DATE
Solaris 2.7|Ultra 2|cc SC5.0|=+-|*Sparc                     COMMENT
BIT 2 OF LLI FLAGS DATA COLLECTED UNDER A/S CONDITION       COMMENT
-Unknown-                                                   MARKER NAME
-Unknown- -Unknown-                                         OBSERVER / AGENCY
-Unknown- TURBOROGUE -Unknown-                              REC # / TYPE / VERS
-Unknown- -Unknown-                                         ANT # / TYPE
        0.0000        0.0000        0.0000                  APPROX POSITION XYZ
        0.0000        0.0000        0.0000                  ANTENNA: DELTA H/E/N
     1     1                                                WAVELENGTH FACT L1/2
     5    L1    L2    P1    P2    C1                        # / TYPES OF OBSERV
P1 = P1 TurboRogue; = Y1 Benchmark                          COMMENT
L1 = L1(P1) TurboRogue; = L1(Y1) Benchmark                  COMMENT
P2 = P2 TurboRogue; = Y2 Benchmark                          COMMENT
L2 = L2(P2) TurboRogue; = L2(Y2) Benchmark                  COMMENT
SNR is mapped to RINEX snr flag value [1,4-9]               COMMENT
SNR: >=316 >=100 >=31.6 >=10 >=3.2 >0 bad=0                 COMMENT
L1 & L2: 9 8 7 6 5 4 1                                      COMMENT
  1995     3    13     6    47    0.0000000     GPS         TIME OF FIRST OBS
                                                            END OF HEADER
 95  3 13  6 47  0.0000000  0  1G 6
 -26449579.16249 -20610049.16948                  20281211.877    20281212.602
 95  3 13  6 47 30.0000000  0  6G17G23G26G22G16G 6
 -20846523.38949 -16244036.33848                  21021227.608    21021227.757
 -10336576.55149  -8054473.45947                  21566351.495    21566351.555
 -15306998.90149 -11927529.16447                  22190003.211    22190003.992
  -1188427.18848   -926046.56246                  23857919.831    23857920.417
  -4079249.95948  -3178620.34145                  24082050.186    24082050.971
 -26423444.15849 -20589684.24148                  20286185.109    20286185.947
 95  3 13  6 48  0.0000000  0  6G17G23G26G22G16G 6
 -20871687.48749 -16263644.72348                  21016438.878    21016439.173
 -10398562.54049  -8102774.21947                  21554555.783    21554555.892
 -15336228.17749 -11950305.20747                  22184440.206    22184441.758
  -1225770.84248   -955145.52846                  23850813.640    23850813.977
  -3979261.56748  -3100707.31245                  24101079.121    24101077.730
 -26396832.68549 -20568948.03848                  20291249.135    20291249.904
 95  3 13  6 48 30.0000000  0  6G17G23G26G22G16G 6
 -20896645.98749 -16283092.90148                  21011689.614    21011689.735
 -10460170.96149  -8150780.76647                  21542832.102    21542832.218
 -15364928.79149 -11972669.30047                  22178979.015    22178980.112
  -1262603.84748   -983846.59746                  23843804.484    23843804.616
  -3879183.99348  -3022724.79045                  24120124.456    24120121.918
 -26369713.35749 -20547816.09948                  20296409.848    20296410.431
 95  3 13  6 49  0.0000000  0  6G17G23G26G22G16G 6
 -20921409.61449 -16302389.22648                  21006977.239    21006977.211
 -10521386.46449  -8198481.14547                  21531183.469    21531183.472
 -15393090.53149 -11994613.49747                  22173619.852    22173620.890
  -1298946.83548  -1012165.81846                  23836887.926    23836889.151
  -3779022.62248  -2944676.95045                  24139181.280    24139182.420
 -26342079.25449 -20526283.04648                  20301668.564    20301668.985
 95  3 13  6 49 30.0000000  0  6G17G23G26G22G16G 6
 -20945997.95849 -16321548.96348                  21002297.875    21002298.112
 -10582206.25249  -8245873.17747                  21519609.576    21519609.782
 -15420710.73849 -12016135.72147                  22168363.758    22168365.001
  -1334827.44448  -1040124.74246                  23830061.683    23830061.346
  -3678779.04248  -2866565.08046                  24158255.875    24158258.048
 -26313954.47449 -20504367.64448                  20307020.470    20307020.878
 95  3 13  6 50  0.0000000  0  6G17G23G26G22G16G 6
 -20970424.34149 -16340582.50248                  20997649.660    20997650.075
 -10642628.29349  -8292955.27847                  21508111.477    21508111.746
 -15447782.30949 -12037230.43847                  22163211.792    22163213.261
  -1370242.81648  -1067721.15646                  23823320.677    23823322.225
  -3578461.87048  -2788395.84246                  24177346.809    24177347.812
 -26285334.46649 -20482066.35148                  20312466.549    20312467.281
 95  3 13  6 50 30.0000000  0  6G17G23G26G22G16G 6
 -20994678.86149 -16359482.12348                  20993034.255    20993034.655
 -10702645.09049  -8339721.60348                  21496691.023    21496690.985
 -15474303.24249 -12057896.09147                  22158165.485    22158166.508
  -1405163.01648  -1094931.69746                  23816676.259    23816677.503
  -3478059.48248  -2710160.19646                  24196453.479    24196453.819
 -26256201.44649 -20459365.31148                  20318010.405    20318011.171
 95  3 13  6 51  0.0000000  0  6G17G23G26G22G16G 6
 -21018774.84549 -16378258.21148                  20988449.170    20988449.244
 -10762286.11649  -8386195.11848                  21485341.794    21485341.761
 -15500317.85049 -12078167.19847                  22153214.763    22153216.201
  -1439594.72348  -1121761.61846                  23810124.263    23810124.721
  -3377584.33648  -2631867.87946                  24215573.236    24215573.648
 -26226586.62149 -20436288.83348                  20323645.965    20323646.842
 95  3 13  6 51 30.0000000  0  6G23G26G22G16G 6G17
 -10821543.64249  -8432369.80447                  21474065.183    21474065.267
 -15525831.24149 -12098047.75247                  22148360.284    22148361.285
  -1473506.63748  -1148186.48646                  23803670.640    23803670.875
  -3277028.36748  -2553512.57746                  24234709.064    24234708.439
 -26196476.95749 -20412826.76848                  20329375.767    20329376.454
 -21042689.19849 -16396892.76448                  20983898.458    20983898.688
 95  3 13  6 52  0.0000000  0  6G23G26G22G16G 6G17
 -10880431.69149  -8478256.58047                  21462859.148    21462859.227
 -15550875.35049 -12117562.63047                  22143594.692    22143595.645
  -1506898.80148  -1174206.37746                  23797315.639    23797317.017
  -3176423.80548  -2475119.43346                  24253852.075    24253852.722
 -26165885.68149 -20388989.41848                  20335197.070    20335197.762
 -21066438.68949 -16415398.85548                  20979378.700    20979379.125
 95  3 13  6 52 30.0000000  0  6G23G26G22G16G 6G17
 -10938941.62649  -8523848.72648                  21451725.212    21451725.118
 -15575445.88449 -12136708.48847                  22138919.213    22138919.788
  -1539770.05148  -1199820.33646                  23791061.100    23791061.767
  -3075760.96748  -2396680.86446                  24273008.161    24273008.293
 -26134811.50349 -20364775.78348                  20341110.360    20341111.015
 -21090024.54949 -16433777.44048                  20974890.580    20974890.936
 95  3 13  6 53  0.0000000  0  6G23G26G22G16G 6G17
 -10997063.73149  -8569138.66648                  21440664.691    21440664.918
 -15599525.55349 -12155471.85347                  22134337.249    22134337.593
  -1572135.59648  -1225040.26146                  23784902.554    23784902.885
  -2975040.36548  -2318197.27646                  24292174.743    24292174.760
 -26103252.41449 -20340184.29248                  20347115.845    20347116.450
 -21113439.75349 -16452023.04848                  20970435.173    20970435.175
 95  3 13  6 53 30.0000000  0  6G23G26G22G16G 6G17
 -11054795.79249  -8614124.67847                  21429678.569    21429678.802
 -15623092.53249 -12173835.69747                  22129852.606    22129853.179
  -1604021.49748  -1249886.42346                  23778834.807    23778835.681
  -2874285.40848  -2239686.93545                  24311347.745    24311347.365
 -26071211.02649 -20315216.98948                  20353212.962    20353213.633
 -21136692.58249 -16470142.13148                  20966010.271    20966010.132
 95  3 13  6 54  0.0000000  0  6G23G26G22G16G 6G17
 -11112157.96049  -8658822.45948                  21418762.842    21418763.037
 -15646134.13549 -12191790.19747                  22125467.022    22125468.321
  -1635453.66648  -1274379.03246                  23772854.362    23772854.085
  -2773511.65148  -2161161.93346                  24330523.737    24330523.876
 -26038703.04649 -20289886.10148                  20359399.077    20359399.781
 -21159799.12049 -16488147.21148                  20961612.894    20961613.145
 95  3 13  6 54 30.0000000  0  6G23G26G22G16G 6G17
 -11169135.25649  -8703220.34248                  21407920.493    21407920.744
 -15668619.68949 -12209311.39647                  22121188.244    22121189.348
  -1666418.74848  -1298507.67246                  23766960.293    23766961.186
  -2672687.30548  -2082597.52045                  24349711.301    24349710.027
 -26005698.19249 -20264168.04148                  20365679.843    20365680.407
 -21182736.51749 -16506020.50148                  20957248.398    20957248.509
 95  3 13  6 55  0.0000000  0  6G23G26G22G16G 6G17
 -11225731.64349  -8747321.41248                  21397150.661    21397150.883
 -15690558.80449 -12226406.80047                  22117013.652    22117014.352
  -1696917.58348  -1322273.00046                  23761156.587    23761158.248
  -2571828.91148  -2004006.59845                  24368901.371    24368902.219
 -25972207.54149 -20238071.43948                  20372052.886    20372053.449
 -21205503.54549 -16523761.03848                  20952915.787    20952915.759
 95  3 13  6 55 30.0000000  0  6G23G26G22G16G 6G17
 -11281912.46749  -8791098.66648                  21386460.109    21386460.141
 -15711930.82749 -12243060.30447                  22112947.055    22112947.414
  -1726916.07548  -1345648.44846                  23755448.891    23755449.633
  -2470910.96148  -1925369.24145                  24388106.452    24388105.950
 -25938200.82549 -20211572.71848                  20378524.068    20378524.870
 -21228080.14949 -16541353.18848                  20948619.556    20948619.691
 95  3 13  6 56  0.0000000  0  6G23G26G22G16G 6G17
 -11337709.20649  -8834576.63348                  21375842.081    21375842.281
 -15732780.37249 -12259306.69447                  22108978.920    22108980.042
  -1756415.09848  -1368634.72646                  23749836.616    23749835.613
  -2369957.29248  -1846704.07645                  24407315.438    24407317.449
 -25903697.43549 -20184686.96748                  20385090.013    20385090.581
 -21250505.22849 -16558827.26248                  20944352.277    20944352.361
 95  3 13  6 56 30.0000000  0  6G23G26G22G16G 6G17
 -11393113.36049  -8877748.69248                  21365298.730    21365299.050
 -15753122.51949 -12275157.69947                  22105107.930    22105109.001
  -1785411.42448  -1391229.23146                  23744317.596    23744317.539
  -2268961.81648  -1768006.29845                  24426535.931    24426536.263
 -25868695.52649 -20157412.75148                  20391750.646    20391751.239
 -21272771.23449 -16576177.38848                  20940114.999    20940115.281
 95  3 13  6 57  0.0000000  0  6G23G26G22G16G 6G17
 -11448116.26149  -8920608.08448                  21354832.083    21354832.313
 -15772963.26849 -12290618.00947                  22101332.522    22101333.514
  -1813913.50848  -1413438.65246                  23738891.735    23738893.846
  -2167931.67148  -1689281.53345                  24445760.689    24445762.118
 -25833206.88749 -20129759.27248                  20398503.965    20398504.522
 -21294860.75749 -16593389.99948                  20935911.446    20935911.716
 95  3 13  6 57 30.0000000  0  6G23G26G22G16G 6G17
 -11502733.05149  -8963166.60848                  21344439.042    21344439.009
 -15792300.91849 -12305686.29847                  22097652.285    22097653.846
  -1841927.43048  -1435267.71446                  23733562.772    23733563.204
  -2066877.74648  -1610538.22945                  24464992.001    24464991.969
 -25797237.97849 -20101731.57348                  20405348.584    20405349.222
 -21316780.41649 -16610470.24348                  20931740.359    20931740.651
 95  3 13  6 58  0.0000000  0  6G23G26G22G16G 6G17
 -11556965.90549  -9005425.96248                  21334119.019    21334118.805
 -15811133.21549 -12320360.80647                  22094068.799    22094070.017
  -1869449.52148  -1456713.49446                  23728326.205    23728326.204
  -1965797.19748  -1531774.14745                  24484226.837    24484227.185
 -25760797.79049 -20073336.63248                  20412282.855    20412283.399
 -21338514.37249 -16627405.78548                  20927604.338    20927604.769
 95  3 13  6 58 30.0000000  0  6G23G26G22G16G 6G17
 -11610774.40149  -9047354.64548                  21323879.624    21323879.397
 -15829420.78749 -12334610.84947                  22090588.456    22090589.701
  -1896473.09148  -1477770.82646                  23723184.730    23723183.665
  -1864650.41348  -1452958.46545                  24503475.741    24503475.266
 -25723862.48849 -20044555.88848                  20419311.200    20419311.971
 -21360020.56649 -16644163.85348                  20923512.011    20923512.370
 95  3 13  6 59  0.0000000  0  6G23G26G22G16G 6G17
 -11664159.05049  -9088953.06248                  21313720.985    21313720.852
 -15847149.48149 -12348425.40147                  22087215.275    22087216.003
  -1922977.22748  -1498423.41646                  23718139.798    23718140.068
  -1763447.37748  -1374098.92145                  24522731.457    24522733.536
 -25686436.91549 -20015393.11548                  20426433.287    20426433.861
 -21381315.58949 -16660757.37148                  20919459.551    20919459.861
 95  3 13  6 59 30.0000000  0  6G23G26G22G16G 6G17
 -11717150.35649  -9130244.97648                  21303636.911    21303636.994
 -15864335.06249 -12361816.75347                  22083945.383    22083945.813
  -1948962.98448  -1518672.06546                  23713194.407    23713195.316
  -1662205.47848  -1295209.13645                  24541999.228    24541999.385
 -25648532.33149 -19985857.08048                  20433646.130    20433646.740
 -21402443.47549 -16677220.65348                  20915439.113    20915439.336
 95  3 13  7  0  0.0000000  0  6G23G26G22G16G 6G17
 -11769716.93549  -9171205.93648                  21293633.864    21293633.730
 -15880957.66849 -12374769.42847                  22080781.509    22080782.612
  -1974413.48148  -1538503.65046                  23708352.107    23708351.769
  -1560885.22948  -1216258.30445                  24561279.120    24561280.070
 -25610117.79249 -19955923.67548                  20440956.241    20440956.981
 -21423379.70949 -16693534.59748                  20911455.094    20911455.361
 95  3 13  7  0 30.0000000  0  6G23G26G22G16G 6G17
 -11821892.20149  -9211861.97048                  21283705.176    21283705.135
 -15897035.27349 -12387297.41347                  22077722.236    22077723.118
  -1999356.59048  -1557939.82346                  23703607.000    23703605.492
  -1459523.91648  -1137275.45245                  24580565.620    24580568.312
 -25571214.56149 -19925609.48048                  20448359.246    20448360.078
 -21444166.93249 -16709732.43048                  20907499.462    20907499.610
 95  3 13  7  1  0.0000000  0  6G23G26G22G16G 6G17
 -11873683.41749  -9252218.74748                  21273849.409    21273849.544
 -15912563.50549 -12399397.33247                  22074767.066    22074768.390
  -2023776.03548  -1576967.97946                  23698958.113    23698959.101
  -1358125.57948  -1058263.76645                  24599863.219    24599863.799
 -25531814.44549 -19894908.10648                  20455856.882    20455857.735
 -21464799.26149 -16725809.56948                  20903573.302    20903573.411
 95  3 13  7  1 30.0000000  0  6G23G26G22G16G 6G17
 -11925101.67049  -9292284.90548                  21264064.787    21264064.917
 -15927561.09749 -12411083.76847                  22071913.379    22071914.480
  -2047719.15748  -1595624.96346                  23694402.234    23694402.742
  -1256706.67848   -979236.05145                  24619161.936    24619162.850
 -25491926.60849 -19863826.68948                  20463447.094    20463448.072
 -21485279.36049 -16741768.08448                  20899676.010    20899676.190
 95  3 13  7  2  0.0000000  0  6G23G26G22G16G 6G17
 -11976137.23749  -9332052.86848                  21254353.050    21254353.151
 -15942025.49549 -12422354.71847                  22069161.174    22069161.629
  -2071206.45248  -1613926.75446                  23689933.378    23689933.020
  -1155292.37048   -900211.92445                  24638460.447    24638461.648
 -25451557.85449 -19832370.52948                  20471129.119    20471130.074
 -21505607.24049 -16757607.98648                  20895807.755    20895808.105
 95  3 13  7  2 30.0000000  0  6G23G26G22G16G 6G17
 -12026759.52549  -9371498.79848                  21244720.011    21244720.158
 -15955931.56449 -12433190.60847                  22066514.777    22066515.524
  -2094204.35648  -1631847.20446                  23685555.696    23685556.949
  -1053874.00048   -821184.61845                  24657759.873    24657760.846
 -25410677.95749 -19800516.07548                  20478908.428    20478909.188
 -21525755.01249 -16773307.55048                  20891973.682    20891974.098
 95  3 13  7  3  0.0000000  0  6G23G26G22G16G 6G17
 -12076958.39249  -9410614.78648                  21235167.408    21235167.618
 -15969274.55849 -12443587.73247                  22063975.789    22063976.459
  -2116700.11248  -1649376.36446                  23681275.303    23681275.675
   -952443.29748   -742147.73445                  24677062.174    24677062.462
 -25369277.60649 -19768256.07548                  20486786.564    20486787.424
 -21545717.21049 -16788862.50848                  20888175.183    20888175.539
 95  3 13  7  3 30.0000000  0  6G23G26G22G16G 6G17
 -12126734.23449  -9449401.14948                  21225695.292    21225695.570
 -15982061.52549 -12453551.59347                  22061542.197    22061543.458
  -2138710.42248  -1666527.26346                  23677087.682    23677087.589
   -851022.40948   -663118.50145                  24696361.744    24696362.110
 -25327371.89749 -19735602.28348                  20494761.255    20494761.816
 -21565516.10749 -16804290.21648                  20884407.697    20884407.720
 95  3 13  7  4  0.0000000  0  6G23G26G22G16G 6G17
 -12176103.14149  -9487870.41748                  21216300.741    21216300.933
 -15994296.47049 -12463085.30847                  22059214.265    22059215.159
  -2160211.79448  -1683281.60346                  23672995.864    23672996.099
   -749605.46948   -584092.32645                  24715660.969    24715660.877
 -25284952.36249 -19702548.10848                  20502833.096    20502833.830
 -21585151.09349 -16819590.20448                  20880671.067    20880671.204
 95  3 13  7  4 30.0000000  0  6G23G26G22G16G 6G17
 -12225100.12749  -9526049.87448                  21206977.193    21206977.112
 -16005990.45849 -12472197.49647                  22056988.824    22056989.536
  -2181194.68748  -1699631.92746                  23669002.781    23669003.137
   -648184.39248   -505062.91045                  24734962.780    24734960.863
 -25242035.84249 -19669106.67648                  20510999.991    20511000.666
 -21604630.98249 -16834769.33848                  20876964.013    20876964.364
 95  3 13  7  5  0.0000000  0  6G23G26G22G16G 6G17
 -12273734.96249  -9563947.13748                  21197722.137    21197722.122
 -16017137.16349 -12480883.23547                  22054867.922    22054868.681
  -2201656.25048  -1715576.00746                  23665109.438    23665110.004
   -546757.90548   -426029.29245                  24754263.036    24754261.183
 -25198636.30149 -19635288.86248                  20519258.584    20519259.351
 -21623956.76349 -16849828.38848                  20873286.548    20873286.884
 95  3 13  7  5 30.0000000  0  6G23G26G22G16G 6G17
 -12322014.25049  -9601567.35048                  21188534.889    21188534.789
 -16027743.21549 -12489147.68647                  22052849.515    22052850.569
  -2221605.26248  -1731120.68546                  23661312.756    23661313.316
   -445326.25548   -346991.64645                  24773563.611    24773562.889
 -25154760.32149 -19601099.80348                  20527607.922    20527608.829
 -21643116.96149 -16864758.41148                  20869640.602    20869640.775
 95  3 13  7  6  0.0000000  0  6G23G26G22G16G 6G17
 -12369945.76649  -9638916.57448                  21179413.660    21179413.694
 -16037811.43049 -12496993.04347                  22050933.080    22050934.346
  -2241035.70348  -1746261.31046                  23657616.740    23657615.512
   -343870.89848   -267935.49845                  24792870.793    24792868.753
 -25110408.46349 -19566539.92748                  20536047.909    20536048.800
 -21662100.32349 -16879550.64048                  20866028.201    20866028.500
 95  3 13  7  6 30.0000000  0  7G23G26G22G21G16G 6G17
 -12417490.58549  -9675964.47748                  21170366.331    21170366.325
 -16047318.80349 -12504401.38147                  22049123.766    22049125.265
  -2259950.20748  -1761000.46046                  23654015.611    23654016.640
        -0.23858         0.61455                  24201656.724    24201658.004
   -242389.12248   -188858.78345                  24812177.083    24812178.690
 -25065578.54749 -19531607.53848                  20544578.543    20544579.571
 -21680894.82849 -16894195.70748                  20862451.480    20862451.908
 95  3 13  7  7  0.0000000  0  6G23G26G22G21G 6G17
 -12464625.47649  -9712692.95848                  21161396.744    21161396.828
 -16056275.63349 -12511380.71947                  22047419.545    22047420.702
  -2278382.07948  -1775363.39546                  23650507.101    23650508.938
    -90240.54948    -70316.49546                  24184484.911    24184486.108
 -25020275.72149 -19496306.63648                  20553199.532    20553200.304
 -21699504.55349 -16908696.78848                  20858910.432    20858910.485
 95  3 13  7  7 30.0000000  0  7G23G26G22G21G20G 6G17
 -12511290.48349  -9749055.29148                  21152516.760    21152516.792
 -16064628.41849 -12517889.37247                  22045830.068    22045831.128
  -2296284.36848  -1789313.24446                  23647100.603    23647101.806
   -180259.96548   -140461.51546                  24167355.457    24167356.227
        -0.55758        -0.40755                  24364465.640    24364463.703
 -24974435.47749 -19460586.97048                  20561922.528    20561923.218
 -21717874.73849 -16923011.21848                  20855414.654    20855414.763
 95  3 13  7  8  0.0000000  0  7G23G26G21G22G20G 6G17
 -12557512.59949  -9785072.51448                  21143721.057    21143721.216
 -16072412.08349 -12523954.55247                  22044349.110    22044350.040
   -270086.31048   -210456.04946                  24150263.407    24150262.903
  -2313693.13848  -1802878.53446                  23643789.452    23643789.210
    100150.72048     78039.55345                  24383523.578    24383521.535
 -24928094.25449 -19424476.93348                  20570740.708    20570741.694
 -21736052.71349 -16937175.87448                  20851955.220    20851955.583
 95  3 13  7  8 30.0000000  0  7G23G26G22G21G20G 6G17
 -12603337.69149  -9820780.36848                  21135000.757    21135000.971
 -16079682.02649 -12529619.43747                  22042965.398    22042966.479
  -2330659.41448  -1816099.02346                  23640560.416    23640560.609
   -359767.60348   -280337.58746                  24133198.013    24133197.101
    200155.80148    155965.58745                  24402553.227    24402551.845
 -24881310.64249 -19388022.17548                  20579643.488    20579644.380
 -21754096.26249 -16951235.78648                  20848521.867    20848522.121
 95  3 13  7  9  0.0000000  0  7G23G26G22G21G20G 6G17
 -12648752.70949  -9856168.68248                  21126358.556    21126358.855
 -16086421.05049 -12534870.62047                  22041683.366    22041684.156
  -2347142.51348  -1828943.00646                  23637423.366    23637424.155
   -449261.11148   -350072.76746                  24116167.617    24116166.815
    300034.88348    233793.42245                  24421560.210    24421558.589
 -24834058.37649 -19351202.24148                  20588635.250    20588636.136
 -21771976.76049 -16965168.64248                  20845119.345    20845119.663
 95  3 13  7  9 30.0000000  0  7G23G26G22G21G20G 6G17
 -12693748.96949  -9891230.69148                  21117796.035    21117796.204
 -16092599.10049 -12539684.67047                  22040507.434    22040508.602
  -2363102.55248  -1841379.41446                  23634387.984    23634387.027
   -538545.04448   -419644.68846                  24099177.419    24099176.932
    399829.04448    311555.11645                  24440548.707    24440548.690
 -24786312.75949 -19313997.87148                  20597721.154    20597721.896
 -21789667.15649 -16978953.36748                  20841752.927    20841753.149
 95  3 13  7 10  0.0000000  0  7G23G26G22G21G20G 6G17
 -12738328.06049  -9925967.63348                  21109312.759    21109313.016
 -16098214.44949 -12544060.26147                  22039438.813    22039440.071
  -2378531.84448  -1853402.24546                  23631450.109    23631451.219
   -627621.18348   -489054.65946                  24082226.363    24082226.444
    499548.58148    389258.62845                  24459523.555    24459525.053
 -24738077.12949 -19276411.67348                  20606900.337    20606900.827
 -21807172.06649 -16992593.55548                  20838421.740    20838422.076
 95  3 13  7 10 30.0000000  0  7G23G26G21G22G20G 6G17
 -12782491.39249  -9960380.60948                  21100908.687    21100909.048
 -16103246.42149 -12547981.26647                  22038481.227    22038482.553
   -716503.52948   -558313.64146                  24065314.757    24065312.988
  -2393422.41848  -1865005.31046                  23628617.701    23628617.407
    599201.77748    466910.49645                  24478490.097    24478488.084
 -24689349.39749 -19238442.02148                  20616172.927    20616173.394
 -21824482.75649 -17006082.40848                  20835127.725    20835127.690
 95  3 13  7 11  0.0000000  0  7G23G26G22G21G20G 6G17
 -12826257.93549  -9994484.40048                  21092580.069    21092580.525
 -16107693.34249 -12551446.39547                  22037635.445    22037636.123
  -2407786.75848  -1876198.32846                  23625883.736    23625883.962
   -805205.32248   -627431.90946                  24048434.442    24048433.530
    698795.65548    544516.06345                  24497441.746    24497439.989
 -24640126.71649 -19200086.69948                  20625539.610    20625540.178
 -21841611.97649 -17019429.85148                  20831868.205    20831868.279
 95  3 13  7 11 30.0000000  0  7G23G26G22G21G20G 6G17
 -12869648.72649 -10028295.39648                  21084323.163    21084323.451
 -16111561.83349 -12554460.79247                  22036899.391    22036899.886
  -2421644.41148  -1886996.51146                  23623247.350    23623246.853
   -893747.16348   -696425.56646                  24031585.649    24031584.420
    798323.09648    622069.91445                  24516377.695    24516379.688
 -24590415.42549 -19161350.63448                  20634999.267    20634999.945
 -21858588.74349 -17032658.49848                  20828637.573    20828637.956
 95  3 13  7 12  0.0000000  0  7G23G26G22G21G20G 6G17
 -12912653.50249 -10061805.60048                  21076139.658    21076139.905
 -16114852.75749 -12557025.13947                  22036272.934    22036273.764
  -2434997.33948  -1897401.41246                  23620707.112    23620706.082
   -982124.56448   -765291.07046                  24014766.671    24014766.468
    897766.53548    699558.27945                  24535301.918    24535303.159
 -24540209.49349 -19122229.13648                  20644553.252    20644553.826
 -21875419.19649 -17045773.13148                  20825435.191    20825435.406
 95  3 13  7 12 30.0000000  0  7G23G26G22G21G20G 6G17
 -12955272.91549 -10095015.51948                  21068029.633    21068029.867
 -16117581.21349 -12559151.20647                  22035753.279    22035754.425
  -2447864.99848  -1907428.16946                  23618256.920    23618257.561
  -1070346.35648   -834035.33246                  23997978.967    23997978.463
    997104.23048    776964.24845                  24554204.448    24554206.372
 -24489518.48149 -19082729.65248                  20654199.535    20654199.912
 -21892117.42749 -17058784.74048                  20822257.351    20822257.698
 95  3 13  7 13  0.0000000  0  7G23G26G21G22G20G 6G17
 -12997518.55949 -10127934.19448                  21059990.269    21059990.727
 -16119783.02749 -12560866.90447                  22035334.784    22035335.425
  -1158415.20748   -902660.40046                  23981219.793    23981219.717
  -2460263.22648  -1917089.13646                  23615897.302    23615898.365
   1096309.41048    854266.98045                  24573084.827    24573084.110
 -24438353.75349 -19042861.05048                  20663935.833    20663936.301
 -21908688.35349 -17071697.14848                  20819103.809    20819104.369
 95  3 13  7 13 30.0000000  0  7G23G26G21G22G20G 6G17
 -13039352.23049 -10160531.84848                  21052029.772    21052030.032
 -16121439.78849 -12562157.87747                  22035019.499    22035020.326
  -1246298.03448   -971140.51946                  23964496.992    23964496.044
  -2472164.64348  -1926362.97046                  23613633.067    23613633.758
   1195389.72048    931472.41845                  24591937.951    24591938.631
 -24386704.01249 -19002614.50648                  20673764.278    20673764.774
 -21925090.49949 -17084478.04048                  20815982.807    20815983.161
 95  3 13  7 14  0.0000000  0  7G23G26G21G22G20G 6G17
 -13080775.34549 -10192809.59048                  21044147.309    21044147.543
 -16122563.35349 -12563033.38147                  22034805.549    22034806.207
  -1333999.95448  -1039479.66246                  23947806.536    23947806.992
  -2483574.71048  -1935253.96046                  23611460.871    23611462.396
   1294320.33748   1008561.19745                  24610764.685    24610764.693
 -24334596.70949 -18962011.41848                  20683680.106    20683680.567
 -21941312.48249 -17097118.54348                  20812895.664    20812895.997
 95  3 13  7 14 30.0000000  0  7G23G26G21G22G20G 6G17
 -13121775.72649 -10224757.93248                  21036345.164    21036345.428
 -16123130.58349 -12563475.36947                  22034697.781    22034698.339
  -1421499.55748  -1107661.17746                  23931157.676    23931156.108
  -2494463.05648  -1943738.39046                  23609390.738    23609390.295
   1393139.51348   1085563.17945                  24629568.871    24629569.468
 -24282025.13449 -18921046.56948                  20693684.189    20693684.730
 -21957319.31249 -17109591.39848                  20809849.769    20809849.954
 95  3 13  7 15  0.0000000  0  7G23G26G21G22G20G 6G17
 -13162358.68249 -10256381.00848                  21028622.352    21028622.614
 -16123129.95149 -12563474.86947                  22034698.113    22034698.624
  -1508792.68848  -1175681.78946                  23914545.532    23914544.763
  -2504822.66148  -1951810.83846                  23607419.560    23607418.884
   1491861.14148   1162489.09445                  24648356.582    24648355.646
 -24228980.67949 -18879713.24348                  20703778.375    20703778.806
 -21973095.45049 -17121884.49548                  20806847.552    20806847.848
 95  3 13  7 15 30.0000000  0  7G23G26G21G22G20G 6G17
 -13202544.73649 -10287694.80748                  21020975.214    21020975.440
 -16122564.88549 -12563034.54847                  22034805.712    22034806.429
  -1595901.18248  -1243558.53246                  23897969.847    23897968.690
  -2514685.89848  -1959496.47346                  23605540.929    23605541.849
   1590473.31248   1239329.73545                  24667119.918    24667121.032
 -24175483.63149 -18838027.24648                  20713958.491    20713958.959
 -21988684.30649 -17134031.65348                  20803881.338    20803881.394
 95  3 13  7 16  0.0000000  0  7G23G26G21G22G20G 6G17
 -13242336.54649 -10318701.40148                  21013403.036    21013403.215
 -16121424.20049 -12562145.69247                  22035022.482    22035023.472
  -1682827.45548  -1311293.28346                  23881427.441    23881427.031
  -2524047.34548  -1966791.13746                  23603760.170    23603760.474
   1688989.91848   1316095.91245                  24685868.704    24685868.031
 -24121509.51049 -18795969.50448                  20724229.389    20724229.760
 -22004091.79749 -17146037.48848                  20800949.383    20800949.437
 95  3 13  7 16 30.0000000  0  7G23G26G21G22G20G 6G17
 -13281740.26349 -10349405.58848                  21005904.866    21005904.932
 -16119719.99049 -12560817.73647                  22035346.874    22035347.497
  -1769575.35548  -1378889.04246                  23864920.383    23864919.405
  -2532926.51648  -1973709.99746                  23602070.924    23602071.137
   1787407.79248   1392785.16745                  24704596.727    24704596.443
 -24067050.01049 -18753533.54748                  20734592.774    20734593.313
 -22019343.57949 -17157921.99148                  20798047.023    20798047.159
 95  3 13  7 17  0.0000000  0  7G23G26G21G22G20G 6G17
 -13320740.20249 -10379795.14148                  20998483.471    20998483.573
 -16117443.00549 -12559043.45647                  22035779.866    22035780.623
  -1856123.01048  -1446328.79846                  23848450.628    23848450.012
  -2541330.57848  -1980258.61746                  23600471.763    23600471.613
   1885717.96048   1469390.46745                  24723303.430    24723303.993
 -24012085.90649 -18710704.38248                  20745052.058    20745052.797
 -22034434.40149 -17169681.06848                  20795175.242    20795175.495
 95  3 13  7 17 30.0000000  0  7G23G26G21G22G20G 6G17
 -13359324.82449 -10409861.07248                  20991141.020    20991141.207
 -16114586.08849 -12556817.28147                  22036323.192    22036324.469
  -1942454.69348  -1513600.21546                  23832021.346    23832021.629
  -2549240.48548  -1986422.18646                  23598966.436    23598966.273
   1983928.61248   1545918.24245                  24741993.231    24741992.789
 -23956625.08749 -18667488.16948                  20755605.974    20755606.641
 -22049353.91749 -17181306.66348                  20792336.112    20792336.493
 95  3 13  7 18  0.0000000  0  7G26G21G22G20G23G 6G17
 -16111164.54849 -12554151.14047                  22036974.321    22036975.626
  -2028565.28648  -1580699.34346                  23815635.234    23815635.344
  -2556636.94548  -1992185.67846                  23597558.099    23597558.769
   2082030.74948   1622361.45745                  24760659.800    24760660.994
 -13397498.73649 -10439606.97348                  20983876.758    20983876.897
 -23900672.87549 -18623889.05948                  20766253.107    20766253.978
 -22064082.12249 -17192783.18148                  20789533.140    20789533.637
 95  3 13  7 18 30.0000000  0  7G26G21G22G20G23G 6G17
 -16107191.68749 -12551055.40147                  22037730.322    22037731.464
  -2114472.04348  -1647639.67346                  23799287.067    23799287.636
  -2563542.56048  -1997566.69346                  23596244.611    23596244.107
   2180008.27248   1698707.57345                  24779306.638    24779305.778
 -13435265.35049 -10469035.49648                  20976690.126    20976689.927
 -23844257.58049 -18579929.10748                  20776988.462    20776989.282
 -22078635.70849 -17204123.63148                  20786764.152    20786764.367
 95  3 13  7 19  0.0000000  0  7G26G21G22G20G23G 6G17
 -16102657.47549 -12547522.24847                  22038593.299    22038594.345
  -2200178.81048  -1714424.14546                  23782978.597    23782978.220
  -2569949.22048  -2002558.91946                  23595027.292    23595025.610
   2277860.28948   1774955.91645                  24797926.863    24797926.145
 -13472630.48249 -10498151.17248                  20969579.640    20969579.584
 -23787381.45249 -18535610.06348                  20787811.638    20787812.459
 -22093006.12349 -17215321.35248                  20784029.580    20784029.825
 95  3 13  7 19 30.0000000  0  7G26G21G22G20G23G 6G17
 -16097554.58349 -12543545.96947                  22039564.365    22039565.210
  -2285695.99148  -1781060.90546                  23766705.592    23766704.707
  -2575836.79448  -2007146.63746                  23593905.165    23593905.721
   2375590.74748   1851109.48945                  24816524.804    24816523.797
 -13509600.39449 -10526958.88448                  20962544.496    20962544.527
 -23730042.65149 -18490930.49348                  20798722.917    20798723.506
 -22107206.09049 -17226386.25948                  20781327.156    20781327.687
 95  3 13  7 20  0.0000000  0  7G26G21G22G20G23G 6G17
 -16091871.63449 -12539117.69147                  22040645.549    22040646.652
  -2371024.54948  -1847550.68846                  23750468.348    23750467.210
  -2581210.65348  -2011334.06946                  23592881.948    23592882.555
   2473193.70248   1927163.74545                  24835094.444    24835096.469
 -13546166.38149 -10555451.85048                  20955586.026    20955586.388
 -23672216.23749 -18445870.95448                  20809726.993    20809727.480
 -22121246.24149 -17237326.63048                  20778655.282    20778655.806
 95  3 13  7 20 30.0000000  0  7G26G21G22G20G23G 6G17
 -16085585.85749 -12534219.67547                  22041842.020    22041842.832
  -2456159.48448  -1913889.59346                  23734266.955    23734266.635
  -2586080.29348  -2015128.61246                  23591955.869    23591956.297
   2570671.54848   2003120.49745                  24853644.452    24853645.478
 -13582315.43449 -10583619.93448                  20948707.327    20948707.611
 -23613897.79749 -18400428.00848                  20820824.506    20820825.282
 -22135133.22449 -17248147.65048                  20776012.969    20776013.282
 95  3 13  7 21  0.0000000  0  7G26G21G22G20G23G 6G17
 -16078722.01549 -12528871.21447                  22043148.089    22043148.952
  -2541108.96548  -1980083.98246                  23718101.903    23718101.397
  -2590460.07048  -2018541.45646                  23591123.182    23591123.054
   2668001.83248   2078962.25545                  24872170.183    24872167.017
 -13618083.87449 -10611491.43848                  20941900.729    20941900.907
 -23555118.81949 -18354626.22748                  20832009.772    20832010.573
 -22148881.19449 -17258860.35648                  20773396.874    20773397.012
 95  3 13  7 21 30.0000000  0  7G26G21G22G20G23G 6G17
 -16071268.86949 -12523063.56547                  22044566.181    22044567.381
  -2625859.61448  -2046123.44246                  23701976.342    23701973.809
  -2594340.69648  -2021565.33546                  23590383.030    23590384.266
   2765202.43248   2154702.94845                  24890666.035    24890663.683
 -13653445.73049 -10639046.12448                  20935171.491    20935171.647
 -23495869.60849 -18308458.02748                  20843284.839    20843285.436
 -22162475.10549 -17269453.01248                  20770809.932    20770810.106
 95  3 13  7 22  0.0000000  0  7G26G21G22G20G23G 6G17
 -16063264.34849 -12516826.26647                  22046089.569    22046090.605
  -2710442.94848  -2112032.51746                  23685879.042    23685878.066
  -2597774.10548  -2024240.73546                  23589730.349    23589730.864
   2862238.93648   2230315.80845                  24909130.894    24909129.518
 -13688427.12449 -10666304.34748                  20928514.607    20928514.905
 -23436185.78749 -18261951.16148                  20854642.072    20854642.727
 -22175923.61049 -17279932.36848                  20768250.741    20768251.023
 95  3 13  7 22 30.0000000  0  7G26G21G22G20G23G 6G17
 -16054711.58849 -12510161.77047                  22047716.497    22047717.994
  -2794842.50248  -2177798.39546                  23669816.448    23669817.276
  -2600754.64948  -2026563.25746                  23589164.149    23589163.470
   2959117.20448   2305805.36445                  24927567.223    24927564.748
 -13723035.79749 -10693272.13348                  20921928.857    20921929.205
 -23376080.04649 -18215115.53648                  20866079.915    20866080.442
 -22189197.38949 -17290275.57048                  20765724.765    20765724.963
 95  3 13  7 23  0.0000000  0  7G26G21G22G20G23G 6G17
 -16045604.48149 -12503065.32147                  22049450.199    22049450.998
  -2879042.28348  -2243408.60246                  23653795.038    23653794.550
  -2603254.63648  -2028511.29446                  23588687.406    23588688.347
   3055856.30748   2381186.46745                  24945976.525    24945973.424
 -13757256.01249 -10719937.22448                  20915416.790    20915417.372
 -23315533.89149 -18167936.74348                  20877601.405    20877602.124
 -22202278.37949 -17300468.55248                  20763235.508    20763235.740
 95  3 13  7 23 30.0000000  0  7G26G21G22G20G23G 6G17
 -16035914.87949 -12495514.97347                  22051294.558    22051295.119
  -2963022.72648  -2308847.89246                  23637813.960    23637813.713
  -2605241.54848  -2030059.54646                  23588309.602    23588310.439
   3152460.94248   2456462.78445                  24964356.744    24964357.134
 -13791052.12649 -10746271.85148                  20908985.863    20908986.085
 -23254508.36949 -18120384.40748                  20889214.132    20889214.701
 -22215139.11049 -17310489.90648                  20760788.198    20760788.550
 95  3 13  7 24  0.0000000  0  7G26G21G22G20G23G 6G17
 -16025660.12049 -12487524.24347                  22053245.740    22053246.516
  -3046785.11948  -2374117.27746                  23621875.004    23621874.255
  -2606728.45748  -2031218.17846                  23588027.667    23588026.601
   3248893.46748   2531604.98345                  24982709.957    24982707.872
 -13824447.36149 -10772294.10848                  20902630.748    20902631.097
 -23193022.78149 -18072473.57047                  20900914.426    20900915.000
 -22227802.89549 -17320357.79248                  20758378.385    20758378.807
 95  3 13  7 24 30.0000000  0  7G26G21G22G20G23G 6G17
 -16014854.28349 -12479104.11047                  22055301.790    22055302.626
  -3130346.91148  -2439230.36646                  23605974.073    23605973.337
  -2607712.51948  -2031984.99746                  23587840.200    23587839.852
   3345133.40348   2606597.11445                  25001023.718    25001022.180
 -13857453.68649 -10798013.31948                  20896349.996    20896350.231
 -23131096.38849 -18024219.24447                  20912698.702    20912699.258
 -22240305.89849 -17330100.39248                  20755999.060    20755999.437
 95  3 13  7 25  0.0000000  0  7G26G21G22G20G23G 6G17
 -16003485.72749 -12470245.49147                  22057465.110    22057465.831
  -3213714.53848  -2504192.14646                  23590109.668    23590109.149
  -2608181.05548  -2032350.11446                  23587749.867    23587750.512
   3441182.92448   2681440.91145                  25019301.616    25019299.736
 -13890047.83849 -10823411.35848                  20890147.709    20890147.924
 -23068707.16749 -17975604.27647                  20924571.111    20924571.648
 -22252655.71449 -17339723.62548                  20753648.794    20753649.436
 95  3 13  7 25 30.0000000  0  7G26G21G22G20G23G 6G17
 -15991518.13849 -12460920.08447                  22059742.666    22059743.407
  -3296860.06148  -2568980.86346                  23574288.466    23574287.031
  -2608120.45648  -2032302.92046                  23587761.997    23587761.635
   3537060.99448   2756151.06545                  25037547.036    25037544.713
 -13922216.52149 -10848477.86248                  20884026.123    20884026.381
 -23005825.95149 -17926605.93447                  20936537.035    20936537.556
 -22264810.77549 -17349195.10648                  20751336.038    20751336.469
 95  3 13  7 26  0.0000000  0  6G26G21G22G23G 6G17
 -15978971.43449 -12451143.43147                  22062129.804    22062130.682
  -3379799.00948  -2633608.60546                  23558505.062    23558504.164
  -2607553.36148  -2031861.02346                  23587869.178    23587869.849
 -13953986.74449 -10873233.87248                  20877980.479    20877980.674
 -22942470.91149 -17877238.38347                  20948593.074    20948593.683
 -22276785.64449 -17358526.18048                  20749057.479    20749057.656
 95  3 13  7 26 30.0000000  0  6G26G21G22G23G 6G17
 -15965883.11249 -12440944.73547                  22064621.247    22064621.392
  -3462565.52848  -2698101.98846                  23542755.591    23542754.090
  -2606517.47648  -2031053.85346                  23588067.222    23588067.324
 -13985386.98749 -10897701.58548                  20872005.112    20872005.392
 -22878668.96549 -17827522.60447                  20960734.318    20960734.748
 -22288590.61749 -17367724.86648                  20746811.067    20746811.333
 95  3 13  7 27  0.0000000  0  6G26G21G22G23G 6G17
 -15952255.90249 -12430326.12747                  22067213.573    22067214.564
  -3545132.64948  -2762440.00246                  23527042.543    23527041.896
  -2605024.60148  -2029890.58346                  23588351.279    23588351.395
 -14016419.03749 -10921882.39648                  20866099.845    20866100.317
 -22814415.19149 -17777454.74447                  20972961.411    20972961.884
 -22300204.94549 -17376775.00048                  20744600.833    20744601.067
 95  3 13  7 27 30.0000000  0  6G 6G26G21G22G23G17
 -22749699.15949 -17727026.67047                  20985276.203    20985277.015
 -15938063.96749 -12419267.47347                  22069914.243    22069915.395
  -3627456.76948  -2826588.65846                  23511376.093    23511376.173
  -2603047.50148  -2028349.99946                  23588726.985    23588727.365
 -14047061.75649 -10945759.83548                  20860268.680    20860269.153
 -22311598.62749 -17385653.20048                  20742432.471    20742432.808
 95  3 13  7 28  0.0000000  0  6G 6G26G21G22G23G17
 -22684528.71249 -17676244.52447                  20997677.724    20997678.506
 -15923312.27249 -12407772.64147                  22072721.572    22072722.637
  -3709526.21748  -2890538.89246                  23495759.694    23495758.792
  -2600575.03348  -2026423.42246                  23589196.965    23589197.935
 -14077286.45249 -10969311.53948                  20854517.313    20854517.554
 -22322789.41749 -17394373.30448                  20740303.120    20740303.327
 95  3 13  7 28 30.0000000  0  6G 6G26G21G22G23G17
 -22618912.22049 -17625114.80447                  21010164.530    21010164.875
 -15907996.73349 -12395838.44847                  22075636.636    22075637.319
  -3791340.97448  -2954290.63846                  23480189.902    23480189.968
  -2597619.41348  -2024120.37346                  23589760.960    23589760.626
 -14107090.68049 -10992535.60748                  20848845.556    20848845.819
 -22333793.64049 -17402948.03048                  20738209.188    20738209.487
 95  3 13  7 29  0.0000000  0  6G 6G26G21G22G23G17
 -22552854.24849 -17573641.05447                  21022734.712    21022735.090
 -15892102.49849 -12383453.32447                  22078660.799    22078661.795
  -3872914.02348  -3017854.03746                  23464667.762    23464667.383
  -2594176.44748  -2021437.55746                  23590415.627    23590415.824
 -14136482.86049 -11015438.59948                  20843252.370    20843252.632
 -22344633.93249 -17411395.02248                  20736146.201    20736146.767
 95  3 13  7 29 30.0000000  0  6G 6G26G21G22G23G17
 -22486347.16349 -17521817.36147                  21035390.519    21035391.103
 -15875617.58349 -12370607.94047                  22081797.788    22081798.929
  -3954258.34248  -3081239.20446                  23449188.041    23449188.084
  -2590233.18048  -2018364.91046                  23591166.435    23591166.138
 -14165447.89249 -11038008.74848                  20837740.588    20837740.851
 -22355312.03749 -17419715.63348                  20734114.338    20734114.548
 95  3 13  7 30  0.0000000  0  6G 6G26G21G22G23G17
 -22419387.62049 -17469641.11647                  21048132.780    21048133.200
 -15858558.40049 -12357315.06447                  22085043.903    22085045.051
  -4035397.22348  -3144464.30346                  23433748.521    23433747.978
  -2585820.46848  -2014926.45746                  23592005.597    23592005.791
 -14194005.16949 -11060261.16248                  20832306.481    20832306.644
 -22365836.72449 -17427916.69648                  20732111.448    20732111.760
 95  3 13  7 30 30.0000000  0  6G 6G26G21G22G23G17
 -22351946.14349 -17417089.33647                  21060966.585    21060966.874
 -15840913.68449 -12343565.92547                  22088401.740    22088402.828
  -4116328.69148  -3207527.77646                  23418346.930    23418347.121
  -2580927.66748  -2011113.89846                  23592936.878    23592937.004
 -14222158.97449 -11082199.18248                  20826948.879    20826949.093
 -22376176.95149 -17435974.02648                  20730143.996    20730144.111
 95  3 13  7 31  0.0000000  0  6G 6G26G21G22G23G17
 -22284026.84449 -17364165.21747                  21073891.097    21073891.450
 -15822699.49649 -12329373.04547                  22091867.320    22091868.835
  -4197059.72548  -3270435.06646                  23402984.748    23402984.494
  -2575544.25148  -2006919.04646                  23593961.294    23593961.254
 -14249906.39549 -11103820.54448                  20821668.572    20821668.965
 -22386323.74949 -17443880.62848                  20728213.024    20728213.061
 95  3 13  7 31 30.0000000  0  6G 6G26G21G22G23G17
 -22215643.87649 -17310879.80747                  21086903.860    21086904.318
 -15803939.28049 -12314754.68947                  22095437.224    22095438.765
  -4277597.47948  -3333191.74146                  23387658.320    23387658.802
  -2569684.40548  -2002352.93946                  23595077.166    23595076.337
 -14277260.79349 -11125135.65248                  20816463.180    20816463.598
 -22396275.54849 -17451635.28348                  20726319.421    20726319.378
 95  3 13  7 32  0.0000000  0  6G 6G26G21G22G23G17
 -22146795.58049 -17257231.79847                  21100005.338    21100005.847
 -15784619.19349 -12299700.06547                  22099113.991    22099115.157
  -4357937.63648  -3395794.45846                  23372370.362    23372370.331
  -2563338.46848  -1997408.06946                  23596284.903    23596284.350
 -14304217.25949 -11146140.68448                  20811333.637    20811333.862
 -22406025.49149 -17459232.64948                  20724463.821    20724464.083
 95  3 13  7 32 30.0000000  0  6G 6G26G21G22G23G17
 -22077505.17649 -17203239.29247                  21113190.790    21113191.423
 -15764733.33449 -12284204.58947                  22102897.825    22102899.096
  -4438074.88548  -3458239.05046                  23357120.938    23357120.549
  -2556488.20948  -1992070.22146                  23597586.853    23597587.282
 -14330763.58649 -11166826.12648                  20806282.028    20806282.280
 -22415569.50749 -17466669.55348                  20722647.699    20722648.184
 95  3 13  7 33  0.0000000  0  6G 6G26G21G22G23G17
 -22007761.41749 -17148893.51747                  21126462.693    21126463.292
 -15744251.58849 -12268244.78947                  22106795.636    22106796.671
  -4517973.15348  -3520497.43146                  23341916.086    23341916.126
  -2549109.27948  -1986320.41546                  23598991.494    23598991.672
 -14356876.65449 -11187173.96348                  20801312.775    20801313.107
 -22424889.00649 -17473931.50348                  20720874.309    20720874.694
 95  3 13  7 33 30.0000000  0  6G 6G26G21G22G23G17
 -21937571.11649 -17094199.79047                  21139819.525    21139820.052
 -15723159.97249 -12251809.76747                  22110809.223    22110810.188
  -4597622.44148  -3582561.79646                  23326759.696    23326759.688
  -2541215.27448  -1980169.26146                  23600494.906    23600493.654
 -14382563.45949 -11207189.64848                  20796424.798    20796425.180
 -22433988.10049 -17481021.71248                  20719143.124    20719143.181
 95  3 13  7 34  0.0000000  0  6G 6G26G21G22G23G17
 -21866960.63549 -17039178.64647                  21153256.295    21153256.529
 -15701470.59349 -12234908.94847                  22114937.182    22114937.705
  -4677023.34748  -3644432.63446                  23311650.855    23311650.288
  -2532835.01748  -1973639.21546                  23602088.963    23602088.611
 -14407842.15549 -11226887.32448                  20791614.156    20791614.535
 -22442899.39449 -17487965.58248                  20717447.208    20717447.319
 95  3 13  7 34 30.0000000  0  6G 6G26G21G22G23G17
 -21795932.43649 -16983832.00247                  21166772.303    21166772.662
 -15679203.93649 -12217558.30347                  22119174.120    22119174.775
  -4756175.96848  -3706110.00046                  23296589.141    23296587.943
  -2523994.85848  -1966750.79946                  23603771.001    23603771.184
 -14432737.02349 -11246285.91848                  20786877.060    20786877.345
 -22451640.24349 -17494776.63448                  20715783.851    20715784.064
 95  3 13  7 35  0.0000000  0  6G 6G26G21G22G23G17
 -21724469.01849 -16928146.23447                  21180371.255    21180371.540
 -15656356.15549 -12199754.83747                  22123521.542    22123522.593
  -4835067.78648  -3767584.12146                  23281576.327    23281575.234
  -2514701.47348  -1959509.20746                  23605539.565    23605539.277
 -14457258.03049 -11265393.19248                  20782210.962    20782211.155
 -22460210.18049 -17501454.50648                  20714153.041    20714153.187
 95  3 13  7 35 30.0000000  0  6G 6G26G21G22G23G17
 -21652582.27049 -16872130.60447                  21194051.125    21194051.356
 -15632934.69949 -12181504.34647                  22127978.592    22127979.425
  -4913717.95748  -3828869.95746                  23266609.864    23266608.565
  -2504974.63048  -1951929.86846                  23607391.816    23607390.524
 -14481423.28749 -11284223.25848                  20777612.500    20777612.654
 -22468626.59349 -17508012.74648                  20712551.507    20712551.601
 95  3 13  7 36  0.0000000  0  6G 6G26G21G22G23G17
 -21580260.59549 -16815776.05647                  21207813.466    21207813.890
 -15608952.65149 -12162817.03747                  22132542.284    22132543.117
  -4992131.02448  -3889971.02346                  23251687.441    23251686.811
  -2494810.62248  -1944009.89946                  23609324.138    23609324.498
 -14505231.68549 -11302775.25148                  20773081.976    20773082.058
 -22476891.36049 -17514452.82148                  20710978.613    20710978.868
 95  3 13  7 36 30.0000000  0  6G 6G26G21G22G23G17
 -21507511.41949 -16759088.41347                  21221657.116    21221657.512
 -15584433.44049 -12143711.15747                  22137207.741    22137208.948
  -5070342.14948  -3950914.74646                  23236804.443    23236803.759
  -2484206.51148  -1935746.97346                  23611342.702    23611342.134
 -14528693.55949 -11321057.22748                  20768617.088    20768617.306
 -22485000.19349 -17520771.38548                  20709435.435    20709435.732
 95  3 13  7 37  0.0000000  0  6G 6G26G21G22G23G17
 -21434348.27749 -16702078.19547                  21235579.939    21235580.015
 -15559381.85149 -12124190.43647                  22141974.743    22141976.393
  -5148352.95248  -4011702.37546                  23221960.120    23221958.986
  -2473143.20148  -1927126.24246                  23613447.461    23613447.905
 -14551808.33849 -11339068.73748                  20764218.632    20764218.797
 -22492937.00649 -17526955.90948                  20707925.100    20707925.506
 95  3 13  7 37 30.0000000  0  6G 6G26G21G22G23G17
 -21360788.39349 -16644758.82447                  21249577.571    21249578.053
 -15533815.92449 -12104268.93547                  22146840.326    22146841.358
  -5226186.77648  -4072352.08946                  23207148.196    23207147.712
  -2461630.76448  -1918155.54146                  23615638.153    23615638.524
 -14574574.26849 -11356808.41748                  20759886.399    20759886.565
 -22500718.56749 -17533019.45748                  20706444.455    20706444.924
 95  3 13  7 38  0.0000000  0  6G 6G26G21G22G23G17
 -21286811.61249 -16587114.58247                  21263654.924    21263655.367
 -15507725.62649 -12083938.82947                  22151805.035    22151805.981
  -5303821.35748  -4132846.55846                  23192374.154    23192374.256
  -2449640.72148  -1908812.65946                  23617920.097    23617920.252
 -14596947.06849 -11374241.76448                  20755629.095    20755629.183
 -22508307.07349 -17538932.57648                  20705000.431    20705000.679
 95  3 13  7 38 30.0000000  0  6G 6G26G21G22G23G17
 -21212433.50149 -16529157.62547                  21277808.659    21277809.177
 -15481117.04749 -12063204.88147                  22156868.507    22156869.186
  -5381265.01048  -4193192.25746                  23177637.247    23177637.348
  -2437178.19448  -1899101.61646                  23620290.776    23620292.084
 -14618932.66149 -11391373.39148                  20751445.273    20751445.492
 -22515691.35149 -17544686.55048                  20703595.163    20703595.361
 95  3 13  7 39  0.0000000  0  6G 6G26G21G22G23G17
 -21137644.77149 -16470880.70447                  21292040.488    21292040.956
 -15453973.48149 -12042054.05147                  22162033.802    22162034.524
  -5458491.14248  -4253368.44246                  23162942.438    23162941.651
  -2424250.86548  -1889028.40446                  23622751.725    23622751.698
 -14640519.45649 -11408194.26348                  20747337.284    20747337.705
 -22522871.97649 -17550281.83748                  20702228.873    20702228.889
 95  3 13  7 39 30.0000000  0  6G 6G26G21G22G23G17
 -21062407.11449 -16412253.97147                  21306357.450    21306358.198
 -15426260.08449 -12020459.19247                  22167307.584    22167308.232
  -5535469.05949  -4313351.22246                  23148293.427    23148293.319
  -2410847.88348  -1878584.54146                  23625301.557    23625302.252
 -14661661.51349 -11424668.58948                  20743314.234    20743314.461
 -22529833.46749 -17555706.37048                  20700904.003    20700904.240
 95  3 13  7 40  0.0000000  0  6G 6G26G21G22G23G17
 -20986742.61149 -16353294.62347                  21320756.272    21320756.901
 -15397996.24049 -11998435.40947                  22172686.318    22172686.838
  -5612215.63549  -4373153.73146                  23133689.623    23133689.213
  -2396984.88548  -1867782.22546                  23627939.638    23627940.159
 -14682387.28549 -11440818.53648                  20739370.155    20739370.567
 -22536597.29549 -17560976.87848                  20699617.063    20699617.172
 95  3 13  7 40 30.0000000  0  6G 6G26G21G22G23G17
 -20910640.23649 -16293994.07347                  21335238.196    21335238.808
 -15369153.58549 -11975960.60947                  22178174.429    22178175.415
  -5688701.43049  -4432753.04646                  23119134.574    23119134.368
  -2382652.14548  -1856613.89046                  23630666.770    23630667.321
 -14702708.40449 -11456653.16648                  20735503.195    20735503.597
 -22543164.51949 -17566094.18748                  20698367.298    20698367.407
 95  3 13  7 41  0.0000000  0  6G 6G26G21G22G23G17
 -20834085.68849 -16234341.19547                  21349806.295    21349806.504
 -15339713.89749 -11953020.58347                  22183776.411    22183777.190
  -5764911.32149  -4492137.36346                  23104632.490    23104632.013
  -2367853.22348  -1845082.28646                  23633484.685    23633483.917
 -14722617.84249 -11472167.00748                  20731714.584    20731714.909
 -22549550.77549 -17571070.48048                  20697151.983    20697152.193
 95  3 13  7 41 30.0000000  0  6G 6G26G21G22G23G17
 -20757085.21449 -16174340.84247                  21364458.774    21364459.046
 -15309674.10649 -11929612.94447                  22189492.858    22189493.654
  -5840849.62349  -4551310.04146                  23090181.689    23090181.419
  -2352573.10948  -1833175.71546                  23636391.556    23636391.772
 -14742110.58049 -11487356.14848                  20728005.029    20728005.534
 -22555750.22249 -17575901.21348                  20695972.142    20695972.533
 95  3 13  7 42  0.0000000  0  6G 6G26G21G22G23G17
 -20679668.72549 -16114016.31947                  21379190.771    21379190.935
 -15279046.13149 -11905746.98647                  22195321.749    22195322.050
  -5916529.77649  -4610281.58046                  23075780.314    23075779.927
  -2336824.39948  -1820903.99446                  23639387.947    23639388.523
 -14761218.11149 -11502245.12548                  20724368.998    20724369.529
 -22561767.15949 -17580589.73048                  20694827.272    20694827.587
 95  3 13  7 42 30.0000000  0  6G 6G26G21G22G23G17
 -20601840.65949 -16053371.08147                  21394000.794    21394001.102
 -15247844.33849 -11881433.89847                  22201258.991    22201259.841
  -5991965.64149  -4669062.75246                  23061425.323    23061424.808
  -2320635.34548  -1808289.16146                  23642469.708    23642469.148
 -14779955.74249 -11516845.87048                  20720803.598    20720803.843
 -22567604.29849 -17585138.14948                  20693716.453    20693716.653
 95  3 13  7 43  0.0000000  0  6G 6G26G21G22G23G17
 -20523596.97649 -15992401.97947                  21408890.207    21408890.444
 -15216081.58149 -11856683.70047                  22207303.071    22207303.842
  -6067170.11849  -4727663.63346                  23047114.106    23047113.793
  -2303998.14248  -1795325.12946                  23645635.678    23645635.129
 -14798308.77049 -11531146.92848                  20717311.066    20717311.339
 -22573248.01349 -17589535.84848                  20692642.380    20692642.740
 95  3 13  7 43 30.0000000  0  6G 6G26G21G22G23G17
 -20444972.29449 -15931136.00147                  21423852.026    21423852.234
 -15183794.26349 -11831524.74447                  22213446.947    22213448.000
  -6142176.42649  -4786110.07346                  23032841.103    23032840.499
  -2286919.61448  -1782017.19546                  23648884.865    23648884.946
 -14816302.26149 -11545167.82448                  20713886.995    20713887.293
 -22578702.82549 -17593786.35348                  20691604.531    20691604.658
 95  3 13  7 44  0.0000000  0  6G 6G26G21G22G23G17
 -20365963.45249 -15869570.68647                  21438886.693    21438887.063
 -15151003.29749 -11805973.34047                  22219687.194    22219687.970
  -6216987.46349  -4844404.37446                  23018604.668    23018604.384
  -2269416.93648  -1768378.77346                  23652215.253    23652215.681
 -14833950.80449 -11558919.92848                  20710528.654    20710528.953
 -22583967.04349 -17597888.34148                  20690602.752    20690602.771
 95  3 13  7 44 30.0000000  0  6G 6G26G21G22G23G17
 -20286513.25549 -15807661.44047                  21454005.901    21454006.012
 -15117667.93349 -11779997.73347                  22226030.480    22226031.360
  -6291554.54649  -4902508.56446                  23004415.559    23004414.636
  -2251438.74948  -1754369.81946                  23655636.738    23655636.677
 -14851201.25749 -11572361.83248                  20707245.839    20707246.204
 -22588989.67949 -17601802.08448                  20689646.884    20689647.034
 95  3 13  7 45  0.0000000  0  6G 6G26G21G22G23G17
 -20206663.32549 -15745440.72647                  21469200.961    21469200.930
 -15083819.39249 -11753622.25047                  22232471.748    22232472.507
  -6365890.11748  -4960432.36746                  22990268.995    22990268.949
  -2232997.75848  -1740000.23146                  23659145.699    23659146.008
 -14868075.41549 -11585510.52348                  20704035.000    20704035.225
 -22593801.37849 -17605551.46348                  20688731.383    20688731.602
 95  3 13  7 45 30.0000000  0  6G 6G26G21G22G23G17
 -20126419.97149 -15682913.45147                  21484470.874    21484470.859
 -15049447.14249 -11726838.68047                  22239012.385    22239013.297
  -6439982.11049  -5018166.36746                  22976170.433    22976169.653
  -2214103.62948  -1725277.56046                  23662741.222    23662741.624
 -14884569.83149 -11598363.31148                  20700896.167    20700896.440
 -22598395.60249 -17609131.37948                  20687856.953    20687857.315
 95  3 13  7 46  0.0000000  0  6G 6G26G21G22G23G17
 -20045760.74249 -15620062.11347                  21499819.600    21499819.740
 -15014520.58849 -11699623.18047                  22245658.789    22245659.709
  -6513798.77049  -5075685.82746                  22962123.361    22962123.114
  -2194757.06448  -1710202.34646                  23666423.309    23666423.286
 -14900669.64849 -11610908.62148                  20697832.401    20697832.673
 -22602764.91249 -17612536.03548                  20687025.661    20687025.769
 95  3 13  7 46 30.0000000  0  7G 6G26G21G22G28G23G17
 -19964693.34949 -15556892.72447                  21515246.153    21515246.344
 -14979016.23849 -11671957.43847                  22252414.814    22252415.919
  -6587341.92849  -5132992.17946                  22948128.738    22948128.188
  -2174955.52848  -1694772.59346                  23670191.051    23670191.530
        -0.21017        -0.40317  24560522.570    24560521.423    24560523.068
 -14916370.19849 -11623142.81048                  20694844.788    20694844.893
 -22606921.53549 -17615774.96248                  20686234.593    20686234.915
 95  3 13  7 47  0.0000000  0  6G 6G26G21G22G23G17
 -19883240.84749 -15493423.26247                  21530745.888    21530746.386
 -14942936.92749 -11643843.68547                  22259280.721    22259281.566
  -6660624.51449  -5190095.48446                  22934183.468    22934183.197
  -2154710.98348  -1678997.64546                  23674043.623    23674043.582
 -14931680.63549 -11635073.01648                  20691931.353    20691931.510
 -22610888.17649 -17618865.85448                  20685479.930    20685480.250
 95  3 13  7 47 30.0000000  0  7G 6G26G21G22G28G23G17
 -19801384.95749 -15429639.47347                  21546322.996    21546322.852
 -14906267.94449 -11615270.45247                  22266258.945    22266259.477
  -6733656.40149  -5247003.43246                  22920285.461    22920285.748
  -2134028.13348  -1662881.16346                  23677979.438    23677979.394
        -0.45217        -0.32617  24520179.405    24520178.156    24520179.374
 -14946598.36849 -11646697.21948                  20689092.469    20689092.679
 -22614659.73449 -17621804.72848                  20684762.141    20684762.465
 95  3 13  7 48  0.0000000  0  7G 6G26G21G22G28G23G17
 -19719131.34649 -15365545.76347                  21561975.011    21561975.277
 -14869029.11249 -11586253.18447                  22273344.958    22273345.854
  -6806471.04249  -5303742.10346                  22906429.538    22906429.414
  -2112922.05848  -1646434.88046                  23681996.088    23681995.819
   -105862.248 7    -82490.051 7  24500034.545    24500033.161    24500034.738
 -14961139.10249 -11658027.65748                  20686325.353    20686325.632
 -22618264.90249 -17624613.95348                  20684075.978    20684076.219
 95  3 13  7 48 30.0000000  0  7G 6G26G21G22G28G23G17
 -19636483.56649 -15301144.90747                  21577702.582    21577702.625
 -14831221.67649 -11556792.83947                  22280539.718    22280540.117
  -6879072.86249  -5360314.93946                  22892614.128    22892613.890
  -2091381.45948  -1629650.01146                  23686094.749    23686094.894
   -211616.077 7   -164895.681 7  24479910.361    24479908.832    24479910.485
 -14975291.51049 -11669055.50448                  20683632.429    20683632.585
 -22621690.08449 -17627282.92648                  20683424.075    20683424.419
 95  3 13  7 49  0.0000000  0  7G 6G26G21G22G28G23G17
 -19553454.81849 -15236447.19447                  21593501.890    21593502.564
 -14792880.69549 -11526916.74447                  22287835.686    22287836.347
  -6951469.94149  -5416728.22946                  22878838.050    22878837.036
  -2069425.85748  -1612541.76246                  23690273.436    23690272.739
   -317270.396 7   -247223.743 7  24459804.769    24459803.747    24459804.541
 -14989076.03049 -11679796.68448                  20681009.175    20681009.404
 -22624939.06349 -17629814.59548                  20682806.063    20682806.248
 95  3 13  7 49 30.0000000  0  7G 6G26G21G22G28G23G17
 -19470037.64449 -15171446.81447                  21609375.424    21609376.309
 -14754010.04349 -11496627.92047                  22295232.204    22295233.175
  -7023657.39749  -5472978.17646                  22865100.609    22865100.228
  -2047064.07748  -1595117.01346                  23694528.332    23694528.117
   -422823.345 7   -329472.802 7  24439718.971    24439717.654    24439718.694
 -15002500.45749 -11690257.27348                  20678454.680    20678454.889
 -22628008.33449 -17632206.23548                  20682222.084    20682222.174
 95  3 13  7 50  0.0000000  0  7G 6G26G21G22G28G23G17
 -19386236.75549 -15106147.43747                  21625322.516    21625323.070
 -14714610.99149 -11465927.35447                  22302729.784    22302730.792
  -7095609.62849  -5529044.83646                  22851408.952    22851408.105
  -2024283.11548  -1577365.61946                  23698863.168    23698862.879
   -528267.474 7   -411637.101 7  24419653.645    24419652.255    24419653.266
 -15015559.19949 -11700432.90948                  20675969.590    20675969.803
 -22630890.80349 -17634452.31948                  20681673.457    20681673.632
 95  3 13  7 50 30.0000000  0  7G 6G26G21G22G28G23G17
 -19302044.90149 -15040543.40247                  21641343.817    21641344.222
 -14674670.01749 -11434804.52047                  22310329.673    22310331.352
  -7167272.40649  -5584885.93746                  22837771.602    22837771.087
  -2001062.43048  -1559271.60846                  23703281.580    23703281.902
   -633592.724 7   -493708.704 7  24399610.698    24399609.483    24399610.426
 -15028251.06449 -11710322.67048                  20673554.441    20673554.762
 -22633559.80949 -17636532.06248                  20681165.549    20681165.798
 95  3 13  7 51  0.0000000  0  7G 6G26G21G22G28G23G17
 -19217439.25349 -14974616.93147                  21657443.756    21657444.192
 -14634180.44249 -11403254.19547                  22318034.167    22318036.278
  -7238619.89449  -5640481.36846                  22824194.709    22824194.207
  -1977377.29548  -1540815.67746                  23707789.646    23707789.442
   -738790.195 7   -575680.801 7  24379592.429    24379591.071    24379592.693
 -15040563.47449 -11719916.75348                  20671211.276    20671211.727
 -22635993.97049 -17638428.80848                  20680702.192    20680702.553
 95  3 13  7 51 30.0000000  0  7G 6G26G21G22G28G23G17
 -19132483.08949 -14908417.34247                  21673610.615    21673610.800
 -14593197.20149 -11371319.20047                  22325833.478    22325835.215
  -7309721.81849  -5695885.44646                  22810663.885    22810664.130
  -1953279.22448  -1522037.98546                  23712374.638    23712375.229
   -843915.084 7   -657596.280 7  24359587.575    24359586.618    24359587.763
 -15052540.38649 -11729249.41148                  20668932.215    20668932.574
 -22638251.35649 -17640187.80748                  20680272.647    20680272.925
 95  3 13  7 52  0.0000000  0  7G 6G26G21G22G28G23G17
 -19047185.50749 -14841951.71547                  21689842.173    21689842.292
 -14551726.86849 -11339004.64947                  22333724.959    22333726.266
  -7380591.21949  -5751108.34246                  22797178.549    22797178.095
  -1928760.56448  -1502932.53946                  23717040.715    23717040.981
   -948961.907 8   -739450.948 7  24339598.081    24339596.575    24339598.241
 -15064176.61449 -11738316.59748                  20666718.086    20666718.268
 -22640320.76349 -17641800.33348                  20679878.830    20679879.116
 95  3 13  7 52 30.0000000  0  7G 6G26G21G22G28G23G17
 -18961535.77249 -14775211.67947                  21706140.634    21706140.898
 -14509757.84849 -11306301.51947                  22341711.433    22341712.635
  -7451243.11949  -5806161.75346                  22783733.259    22783733.330
  -1903811.84448  -1483492.00346                  23721788.670    23721788.327
  -1053909.215 7   -821228.092 7  24319627.150    24319626.030    24319627.275
 -15075461.65949 -11747110.13348                  20664570.567    20664570.746
 -22642184.03849 -17643252.23848                  20679524.200    20679524.786
 95  3 13  7 53  0.0000000  0  7G 6G21G26G22G28G23G17
 -18875524.32049 -14708189.79447                  21722508.088    21722508.031
  -7521712.52049  -5861072.95346                  22770323.965    22770323.408
 -14467274.14949 -11273197.33547                  22349796.326    22349797.218
  -1878420.67948  -1463706.71246                  23726620.365    23726620.035
  -1158736.085 8   -902911.350 8  24299679.400    24299678.243    24299679.604
 -15086367.63549 -11755608.29248                  20662495.238    20662495.542
 -22643843.57349 -17644545.37748                  20679208.403    20679208.880
 95  3 13  7 53 30.0000000  0  7G 6G21G26G22G28G23G17
 -18789137.89549 -14640875.71747                  21738946.928    21738947.037
  -7591988.24949  -5915833.25247                  22756950.789    22756950.360
 -14424250.57049 -11239672.46947                  22357983.072    22357984.417
  -1852589.36048  -1443578.41346                  23731535.326    23731535.604
  -1263421.708 8   -984484.568 8  24279758.162    24279757.152    24279758.271
 -15096883.65049 -11763802.58248                  20660493.992    20660494.332
 -22645292.57249 -17645674.46448                  20678932.759    20678933.122
 95  3 13  7 54  0.0000000  0  7G 6G21G26G22G28G23G17
 -18702365.38949 -14573260.79647                  21755459.126    21755459.406
  -7662048.26649  -5970425.46447                  22743618.333    22743618.462
 -14380681.28249 -11205722.36547                  22366274.540    22366275.376
  -1826318.12948  -1423107.34246                  23736535.129    23736534.885
  -1367960.241 8  -1065943.160 8  24259865.181    24259864.129    24259865.508
 -15107027.60149 -11771706.95348                  20658563.530    20658563.811
 -22646537.87649 -17646644.83048                  20678695.694    20678696.166
 95  3 13  7 54 30.0000000  0  7G 6G26G21G22G28G23G17
 -18615211.88549 -14505348.98647                  21772043.974    21772044.247
 -14336584.57749 -11171361.29347                  22374665.336    22374666.056
  -7731884.64749  -6024843.40547                  22730329.586    22730328.954
  -1799634.38148  -1402314.81946                  23741612.863    23741612.510
  -1472371.443 8  -1147302.550 8  24239996.490    24239995.377    24239996.758
 -15116820.96249 -11779338.13548                  20656699.860    20656700.253
 -22647609.43749 -17647479.80948                  20678491.898    20678492.204
 95  3 13  7 55  0.0000000  0  7G 6G26G21G22G28G23G17
 -18527669.78749 -14437134.37947                  21788702.609    21788703.108
 -14291949.73249 -11136580.89747                  22383159.559    22383159.947
  -7801448.74349  -6079049.17847                  22717092.064    22717091.300
  -1772539.66748  -1381202.07246                  23746768.232    23746768.384
  -1576640.221 8  -1228550.950 8  24220154.824    24220153.663    24220155.088
 -15126241.99349 -11786679.18748                  20654907.341    20654907.639
 -22648488.47949 -17648164.78048                  20678324.753    20678324.966
 95  3 13  7 55 30.0000000  0  7G 6G21G26G22G28G23G17
 -18439733.34349 -14368612.49147                  21805436.552    21805436.856
  -7870697.59849  -6133009.31747                  22703914.185    22703913.490
 -14246792.72949 -11101393.62147                  22391752.553    22391753.325
  -1745047.92148  -1359779.95146                  23751999.826    23751999.977
  -1680760.194 8  -1309683.405 8  24200341.662    24200340.387    24200341.807
 -15135298.40149 -11793736.12048                  20653183.689    20653184.156
 -22649156.41149 -17648685.24948                  20678197.694    20678197.996
 95  3 13  7 56  0.0000000  0  7G 6G21G26G22G28G23G17
 -18351432.03149 -14299806.28647                  21822239.528    21822240.007
  -7939649.46149  -6186738.02847                  22690792.595    22690792.388
 -14201140.12749 -11065820.16747                  22400439.743    22400440.715
  -1717174.51548  -1338060.42246                  23757304.021    23757304.151
  -1784750.577 8  -1390714.886 8  24180552.886    24180551.605    24180553.052
 -15144008.90649 -11800523.52248                  20651526.115    20651526.548
 -22649631.95849 -17649055.80948                  20678107.021    20678107.474
 95  3 13  7 56 30.0000000  0  7G 6G21G26G22G28G23G17
 -18262782.59849 -14230728.83147                  21839108.962    21839109.513
  -8008312.45549  -6240241.64547                  22677726.676    22677726.484
 -14154988.84049 -11029858.12647                  22409222.157    22409223.038
  -1688934.92448  -1316055.57546                  23762679.293    23762677.990
  -1888609.558 8  -1471643.973 8  24160789.093    24160787.931    24160789.531
 -15152357.22749 -11807028.70048                  20649937.533    20649937.881
 -22649894.50049 -17649260.38848                  20678057.018    20678057.532
 95  3 13  7 57  0.0000000  0  7G 6G21G26G22G28G23G17
 -18173803.20449 -14161394.26847                  21856041.196    21856041.655
  -8076703.79949  -6293533.59747                  22664712.120    22664712.240
 -14108328.97449 -10993499.78547                  22418101.465    22418102.206
  -1660325.91248  -1293762.84746                  23768122.228    23768122.313
  -1992336.243 8  -1552469.986 8  24141050.584    24141049.493    24141051.056
 -15160350.91449 -11813257.53648                  20648416.385    20648416.780
 -22649945.22249 -17649299.91348                  20678047.484    20678047.846
 95  3 13  7 57 30.0000000  0  7G 6G21G26G22G28G23G17
 -18084465.67849 -14091780.62747                  21873041.502    21873042.030
  -8144834.38049  -6346622.34947                  22651746.893    22651747.439
 -14061136.98649 -10956726.80647                  22427081.480    22427082.697
  -1631319.87948  -1271160.75946                  23773642.126    23773642.084
  -2095914.818 8  -1633180.568 8  24121340.231    24121339.089    24121340.562
 -15167990.01049 -11819210.07148                  20646962.854    20646963.124
 -22649772.01849 -17649164.95448                  20678080.390    20678080.722
 95  3 13  7 58  0.0000000  0  7G 6G21G26G22G28G23G17
 -17994771.07449 -14021888.74647                  21890109.949    21890110.191
  -8212722.45449  -6399522.13847                  22638829.021    22638828.609
 -14013380.48049 -10919513.95347                  22436169.220    22436170.160
  -1601891.88748  -1248229.87146                  23779241.864    23779241.904
  -2199336.101 8  -1713768.626 8  24101660.056    24101658.743    24101660.456
 -15175266.15149 -11824879.78548                  20645578.232    20645578.485
 -22649368.22949 -17648850.31648                  20678157.382    20678157.589
 95  3 13  7 58 30.0000000  0  7G 6G21G26G22G28G23G17
 -17904725.64049 -13951723.48947                  21907244.988    21907245.353
  -8280380.36049  -6452242.56247                  22625953.830    22625953.610
 -13965068.93049 -10881868.58947                  22445362.784    22445363.749
  -1572052.75148  -1224978.61146                  23784920.732    23784920.175
  -2302607.453 8  -1794239.815 8  24082007.976    24082006.799    24082008.090
 -15182189.40149 -11830274.51848                  20644260.701    20644261.056
 -22648743.22749 -17648363.30248                  20678276.024    20678276.484
 95  3 13  7 59  0.0000000  0  7G 6G21G26G22G28G23G17
 -17814313.37049 -13881272.37047                  21924450.374    21924450.299
  -8347817.64249  -6504791.08947                  22613120.516    22613120.805
 -13916210.18349 -10843796.84447                  22454660.340    22454661.334
  -1541791.92048  -1201398.75446                  23790679.585    23790678.381
  -2405720.894 8  -1874588.002 8  24062386.341    24062385.063    24062386.548
 -15188764.49549 -11835397.96148                  20643009.417    20643009.719
 -22647895.44649 -17647702.69648                  20678437.498    20678437.736
 95  3 13  7 59 30.0000000  0  8G 6G21G26G22G28G 1G23G17
 -17723541.73349 -13810541.23147                  21941723.080    21941723.335
  -8415049.87149  -6557179.82247                  22600326.864    22600326.763
 -13866835.35249 -10805322.94547                  22464055.376    22464057.026
  -1511120.56648  -1177499.01846                  23796514.696    23796515.095
  -2508679.421 8  -1954815.442 8  24042793.843    24042792.685    24042793.965
        -0.44057         0.53054                  25135517.204    25135518.883
 -15194989.45349 -11840248.57048                  20641824.928    20641825.337
 -22646822.09249 -17646866.32148                  20678641.562    20678641.962
 95  3 13  8  0  0.0000000  0  8G 6G21G26G22G28G 1G23G17
 -17632465.45349 -13739572.72147                  21959054.363    21959054.617
  -8482099.64949  -6609426.38647                  22587567.860    22587567.757
 -13816995.21449 -10766486.47247                  22473540.072    22473541.478
  -1480080.92548  -1153312.28946                  23802421.945    23802422.061
  -2611518.198 8  -2034949.615 8  24023224.284    24023223.152    24023224.608
   -109763.24547    -85528.89644                  25114630.082    25114631.730
 -15200897.96149 -11844852.59748                  20640700.519    20640701.074
 -22645563.59149 -17645885.68148                  20678880.968    20678881.544
 95  3 13  8  0 30.0000000  0  8G 6G21G26G22G28G 1G23G17
 -17541051.24449 -13668340.89147                  21976450.256    21976449.978
  -8548929.54349  -6661501.62347                  22574850.277    22574850.349
 -13766678.67249 -10727278.77647                  22483115.243    22483116.002
  -1448659.39648  -1128827.99746                  23808400.723    23808401.052
  -2714200.269 8  -2114961.628 8  24003684.452    24003683.467    24003684.832
   -219603.43048   -171118.62244                  25093725.542    25093730.158
 -15206459.52449 -11849186.27448                  20639642.253    20639642.667
 -22644086.32849 -17644734.57348                  20679162.297    20679162.728
 95  3 13  8  1  0.0000000  0  8G 6G21G26G22G28G 1G23G17
 -17449281.50549 -13596832.01447                  21993913.230    21993913.462
  -8615519.10149  -6713389.58147                  22562179.014    22562179.051
 -13715875.65349 -10687692.01347                  22492782.936    22492783.544
  -1416831.24048  -1104026.85146                  23814457.003    23814457.864
  -2816698.132 8  -2194830.141 8  23984179.753    23984178.782    23984180.284
   -329515.05148   -256763.99344                  25072816.512    25072814.713
 -15211650.00449 -11853230.79448                  20638654.421    20638654.716
 -22642372.49449 -17643399.12748                  20679488.447    20679488.732
 95  3 13  8  1 30.0000000  0  8G 6G21G26G22G28G 1G23G17
 -17357161.04049 -13525049.85447                  22011443.485    22011443.689
  -8681842.27849  -6765069.96547                  22549557.775    22549558.058
 -13664578.67249 -10647720.34947                  22502544.160    22502545.005
  -1384595.09648  -1078907.78946                  23820592.424    23820592.241
  -2919010.280 8  -2274553.908 8  23964710.309    23964709.625    23964710.829
   -439491.03748   -342459.59144                  25051892.074    25051887.061
 -15216474.58749 -11856990.20148                  20637736.345    20637736.781
 -22640438.13749 -17641891.83248                  20679856.524    20679856.731
 95  3 13  8  2  0.0000000  0  8G 6G21G26G22G28G 1G23G17
 -17264685.06449 -13452990.66747                  22029041.274    22029041.167
  -8747888.45949  -6816534.50847                  22536989.499    22536989.703
 -13612771.12549 -10607350.83847                  22512402.779    22512403.725
  -1351958.91748  -1053477.00646                  23826802.799    23826802.819
  -3021135.373 8  -2354131.924 8  23945276.793    23945275.608    23945277.239
   -549520.04348   -428196.42244                  25030951.505    25030949.708
 -15220935.73949 -11860466.41948                  20636887.513    20636888.016
 -22638292.92149 -17640220.22648                  20680264.906    20680265.015
 95  3 13  8  2 30.0000000  0  8G 6G21G26G22G28G 1G23G17
 -17171875.49149 -13380671.53747                  22046701.490    22046702.294
  -8813693.07649  -6867810.82547                  22524467.433    22524467.524
 -13560476.21149 -10566601.54947                  22522354.613    22522354.977
  -1318949.98948  -1027755.77446                  23833084.589    23833084.116
  -3123098.382 8  -2433583.649 8  23925873.750    23925872.939    23925874.573
   -659643.15748   -514006.74544                  25009995.770    25009993.143
 -15225048.83049 -11863671.41748                  20636104.850    20636105.147
 -22635963.32749 -17638404.95248                  20680708.157    20680708.358
 95  3 13  8  3  0.0000000  0  8G 6G21G26G22G28G 1G23G17
 -17078709.78149 -13308074.89047                  22064432.012    22064431.015
  -8879205.73549  -6918859.64347                  22512001.276    22512000.984
 -13507668.96649 -10525453.05747                  22532402.199    22532403.611
  -1285538.98448  -1001721.22246                  23839440.842    23839442.035
  -3224874.606 8  -2512889.810 8  23906506.581    23906505.327    23906507.248
   -769822.79448   -599860.95144                  24989029.177    24989026.543
 -15228793.81649 -11866589.58348                  20635392.143    20635392.523
 -22633422.23549 -17636424.87748                  20681191.783    20681191.875
 95  3 13  8  3 30.0000000  0  8G21G 6G26G22G28G 1G23G17
  -8944406.89249  -6969665.72147                  22499594.147    22499593.709
 -16985187.34249 -13235200.28247                  22082227.773    22082227.490
 -13454329.89249 -10483890.14147                  22542553.054    22542553.764
  -1251731.25448   -975377.55946                  23845875.348    23845875.386
  -3326458.107 8  -2592045.811 8  23887175.753    23887174.888    23887176.119
   -880043.32048   -685747.15844                  24968045.481    24968052.193
 -15232171.82749 -11869221.79448                  20634749.397    20634749.756
 -22630647.93849 -17634263.08248                  20681719.771    20681719.794
 95  3 13  8  4  0.0000000  0  8G21G 6G26G22G28G 1G23G17
  -9009343.34549  -7020265.54447                  22487236.696    22487236.574
 -16891361.72249 -13162089.42247                  22100081.861    22100081.991
 -13400502.02449 -10441946.34547                  22552795.663    22552796.891
  -1217571.08248   -948759.26646                  23852375.935    23852376.090
  -3427883.247 8  -2671078.415 8  23867875.349    23867874.095    23867875.566
   -990328.51948   -771683.64045                  24947068.265    24947065.597
 -15235207.85949 -11871587.52748                  20634171.614    20634172.050
 -22627661.19249 -17631935.74748                  20682288.054    20682288.318
 95  3 13  8  4 30.0000000  0  8G21G 6G26G22G28G 1G23G17
  -9074005.46549  -7070651.59347                  22474931.403    22474931.623
 -16797245.98649 -13088752.49547                  22117992.008    22117991.684
 -13346208.13849 -10399639.41947                  22563127.866    22563128.876
  -1183058.01948   -921865.98546                  23858943.592    23858943.452
  -3529147.889 8  -2749985.925 8  23848605.158    23848604.322    23848605.341
  -1100678.93548   -857670.91244                  24926066.220    24926066.715
 -15237915.49649 -11873697.36748                  20633656.493    20633656.794
 -22624459.80749 -17629441.16248                  20682897.241    20682897.658
 95  3 13  8  5  0.0000000  0  8G21G 6G26G22G28G 1G23G17
  -9138358.85449  -7120797.07347                  22462685.657    22462685.501
 -16702818.49549 -13015172.64847                  22135960.905    22135960.938
 -13291412.28949 -10356941.35847                  22573555.596    22573556.528
  -1148162.46348   -894674.66346                  23865584.623    23865584.065
  -3630215.105 8  -2828739.618 8  23829372.711    23829371.692    23829373.097
  -1211043.85448   -943669.58245                  24905063.760    24905065.030
 -15240275.51249 -11875536.33648                  20633207.306    20633207.696
 -22621015.84949 -17626757.55348                  20683552.663    20683553.041
 95  3 13  8  5 30.0000000  0  8G21G 6G26G22G28G 1G23G17
  -9202455.82949  -7170742.74947                  22450488.701    22450488.369
 -16608101.71649 -12941367.38847                  22153985.198    22153985.169
 -13236112.59749 -10313850.68447                  22584077.648    22584079.629
  -1112900.81048   -867198.07046                  23872293.429    23872293.901
  -3731095.427 8  -2907347.661 8  23810175.784    23810174.906    23810176.402
  -1321438.21648  -1029691.14144                  24884060.934    24884057.580
 -15242293.69249 -11877108.94448                  20632823.248    20632823.693
 -22617355.73549 -17623905.51248                  20684249.225    20684249.487
 95  3 13  8  6  0.0000000  0  8G21G 6G26G22G28G 1G23G17
  -9266305.03049  -7220495.35547                  22438338.220    22438338.343
 -16513077.22349 -12867322.34147                  22172067.308    22172067.534
 -13180320.11649 -10270376.03347                  22594694.716    22594696.848
  -1077254.99548   -839422.12346                  23879077.583    23879076.971
  -3831775.583 8  -2985799.737 8  23791016.901    23791016.029    23791017.479
  -1431856.93948  -1115731.71245                  24863046.020    24863045.701
 -15243966.95449 -11878412.78648                  20632504.766    20632505.158
 -22613487.93949 -17620891.64648                  20684985.305    20684985.491
 95  3 13  8  6 30.0000000  0  8G21G 6G26G22G28G 1G23G17
  -9329915.87349  -7270062.23047                  22426233.817    22426233.558
 -16417733.99149 -12793028.93547                  22190211.043    22190210.645
 -13124044.73749 -10226525.09147                  22605404.136    22605405.676
  -1041226.68848   -811348.14546                  23885934.048    23885932.977
  -3932257.000 8  -3064096.958 8  23771896.027    23771895.170    23771896.505
  -1542312.72948  -1201801.13145                  24842025.965    24842026.478
 -15245313.89349 -11879462.35048                  20632248.467    20632248.850
 -22609415.47449 -17617718.29448                  20685760.126    20685760.509
 95  3 13  8  7  0.0000000  0  8G21G 6G26G22G28G 1G23G17
  -9393293.91249  -7319447.70647                  22414173.803    22414173.090
 -16322052.11849 -12718471.64847                  22208418.237    22208418.250
 -13067257.85849 -10182275.57747                  22616210.356    22616211.554
  -1004812.76548   -782973.67646                  23892862.591    23892862.382
  -4032528.374 8  -3142230.491 8  23752815.029    23752814.058    23752815.271
  -1652795.54248  -1287891.60345                  24821005.600    24821002.563
 -15246314.13749 -11880241.76548                  20632058.085    20632058.479
 -22605121.40449 -17614372.25948                  20686577.271    20686577.637
 95  3 13  8  7 30.0000000  0  8G21G 6G26G22G28G 1G23G17
  -9456438.38849  -7368651.18447                  22402157.155    22402157.218
 -16226020.75949 -12643642.04047                  22226691.838    22226692.500
 -13009987.48149 -10137649.30847                  22627108.782    22627109.587
   -968033.13148   -754314.25146                  23899861.333    23899861.439
  -4132596.848 8  -3220205.915 8  23733772.746    23733771.920    23733772.971
  -1763321.52548  -1374015.75245                  24799970.376    24799970.254
 -15246970.20849 -11880752.99248                  20631933.275    20631933.690
 -22600596.23149 -17610846.15248                  20687438.323    20687438.680
 95  3 13  8  8  0.0000000  0  8G21G 6G26G22G28G 1G23G17
  -9519331.30949  -7417658.64847                  22390189.232    22390189.116
 -16129641.22649 -12568541.11747                  22245032.148    22245032.959
 -12952259.62149 -10092666.55947                  22638093.935    22638095.182
   -930905.00348   -725383.26246                  23906926.850    23906926.460
  -4232467.242 8  -3298026.998 8  23714767.967    23714766.984    23714768.018
  -1873891.44848  -1460174.09245                  24778929.437    24778929.322
 -15247288.80649 -11881001.25148                  20631872.804    20631873.144
 -22595835.41749 -17607136.42948                  20688344.236    20688344.500
 95  3 13  8  8 30.0000000  0  8G21G 6G22G28G26G 1G23G17
  -9581978.54149  -7466474.66547                  22378267.797    22378267.730
 -16032940.79949 -12493190.15747                  22263434.382    22263434.610
   -893447.33448   -696195.47046                  23914054.035    23914054.342
  -4332148.021 8  -3375700.320 8  23695799.497    23695798.515    23695799.707
 -12894065.59249 -10047320.56547                  22649167.480    22649169.224
  -1984510.42048  -1546370.64845                  24757878.522    24757878.996
 -15247266.45149 -11880983.82848                  20631876.872    20631877.208
 -22590848.55249 -17603250.56148                  20689293.246    20689293.420
 95  3 13  8  9  0.0000000  0  8G21G 6G22G28G26G 1G23G17
  -9644376.91249  -7515096.76147                  22366393.827    22366393.485
 -15935931.17049 -12417598.25647                  22281894.349    22281894.880
   -855661.60948   -666752.05046                  23921244.542    23921245.330
  -4431631.776 8  -3453220.120 8  23676868.402    23676867.265    23676868.772
 -12835398.77149 -10001606.15847                  22660331.910    22660333.285
  -2095177.25548  -1632604.53145                  24736819.717    24736819.812
 -15246899.04949 -11880697.53748                  20631946.896    20631947.105
 -22585644.51649 -17599195.46748                  20690283.564    20690283.711
 95  3 13  8  9 30.0000000  0  8G21G 6G22G28G26G 1G23G17
  -9706517.27949  -7563517.80747                  22354569.040    22354568.474
 -15838608.99649 -12341762.81747                  22300414.306    22300414.692
   -817525.30848   -637035.44946                  23928501.331    23928502.435
  -4530904.492 8  -3530575.469 8  23657977.351    23657976.371    23657977.609
 -12776265.07249  -9955527.95147                  22671583.818    22671585.756
  -2205875.73548  -1718863.06245                  24715753.540    24715755.034
 -15246191.38249 -11880146.10348                  20632081.501    20632081.750
 -22580228.66449 -17594975.32548                  20691314.123    20691314.437
 95  3 13  8 10  0.0000000  0  8G21G 6G22G28G26G 1G23G17
  -9768400.12049  -7611738.19147                  22342792.730    22342792.558
 -15740982.95249 -12265690.61347                  22318992.025    22318992.038
   -779006.63048   -607020.90146                  23935833.343    23935832.049
  -4629949.101 8  -3607753.093 8  23639129.829    23639128.779    23639130.157
 -12716643.98049  -9909069.95846                  22682930.445    22682931.466
  -2316580.74948  -1805126.72245                  24694688.774    24694688.427
 -15245142.00349 -11879328.40548                  20632281.146    20632281.568
 -22574597.80749 -17590587.64348                  20692385.735    20692385.666
 95  3 13  8 10 30.0000000  0  8G21G 6G22G28G26G 1G23G17
  -9830046.12149  -7659774.02447                  22331061.763    22331061.638
 -15643082.38949 -12189404.48447                  22337621.949    22337622.152
   -740115.31548   -576715.99146                  23943232.060    23943233.086
  -4728779.276 8  -3684763.607 8  23620323.100    23620321.986    23620323.270
 -12656550.49949  -9862243.85746                  22694365.331    22694366.491
  -2427312.33248  -1891411.04245                  24673617.410    24673616.706
 -15243781.43049 -11878268.21348                  20632539.889    20632540.506
 -22568761.95649 -17586040.22848                  20693496.300    20693496.337
 95  3 13  8 11  0.0000000  0  8G21G 6G22G28G26G 1G23G17
  -9891451.06849  -7707622.01347                  22319376.557    22319376.628
 -15544906.85249 -12112904.08146                  22356303.971    22356304.341
   -700865.95448   -546132.09546                  23950702.171    23950701.752
  -4827396.944 8  -3761608.532 8  23601556.701    23601555.658    23601556.810
 -12596002.32049  -9815063.45647                  22705887.329    22705888.252
  -2538073.13248  -1977718.17345                  24652538.573    24652539.584
 -15242129.31649 -11876980.84848                  20632854.504    20632854.927
 -22562710.74049 -17581324.99448                  20694647.743    20694647.864
 95  3 13  8 11 30.0000000  0  8G21G 6G22G28G26G 1G23G17
  -9952585.70949  -7755259.37747                  22307743.621    22307743.314
 -15446428.80849 -12036167.95346                  22375043.270    22375044.019
   -661240.64248   -515255.23246                  23958243.566    23958242.113
  -4925778.635 8  -3838269.572 8  23582835.342    23582834.151    23582835.596
 -12534973.95049  -9767508.88447                  22717500.658    22717501.676
  -2648829.66448  -2064021.95545                  24631463.704    24631463.449
 -15240155.76149 -11875443.01048                  20633229.981    20633230.431
 -22556406.08049 -17576412.27848                  20695847.432    20695847.399
 95  3 13  8 12  0.0000000  0  8G21G22G 6G28G26G 1G23G17
 -10013423.08649  -7802665.11047                  22296166.145    22296166.376
   -621242.45348   -484087.82946                  23965853.408    23965853.393
 -15347640.24249 -11959189.85946                  22393842.310    22393842.575
  -5023899.109 8  -3914727.078 8  23564163.759    23564162.649    23564164.109
 -12473434.16149  -9719555.80046                  22729211.315    22729211.927
  -2759571.63248  -2150314.41145                  24610390.038    24610389.799
 -15237827.97849 -11873629.14648                  20633672.981    20633673.325
 -22549807.79849 -17571270.76748                  20697103.001    20697103.071
 95  3 13  8 12 30.0000000  0  8G21G22G 6G28G26G 1G23G17
 -10074000.88449  -7849868.56847                  22284638.692    22284638.690
   -580937.03448   -452681.00846                  23973523.610    23973523.481
 -15248580.59849 -11882000.54946                  22412693.070    22412693.125
  -5121801.991 8  -3991015.038 8  23545533.514    23545532.136    23545533.960
 -12411426.16049  -9671237.88746                  22741010.864    22741011.936
  -2870352.28048  -2236636.94745                  24589308.123    24589308.746
 -15235187.73849 -11871571.80848                  20634175.465    20634175.777
 -22542965.67949 -17565939.25248                  20698405.222    20698405.362
 95  3 13  8 13  0.0000000  0  8G21G22G 6G28G26G 1G23G17
 -10134367.72449  -7896907.65147                  22273151.575    22273151.318
   -540368.86448   -421069.44546                  23981241.760    23981243.458
 -15149274.98049 -11804619.56246                  22431590.114    22431590.339
  -5219528.748 8  -4067165.737 8  23526936.762    23526935.344    23526937.282
 -12348997.70449  -9622592.33746                  22752890.209    22752891.813
  -2981202.30748  -2323013.60345                  24568214.668    24568214.491
 -15232267.42849 -11869296.23548                  20634730.972    20634731.425
 -22535933.85949 -17560459.91348                  20699743.120    20699743.501
 95  3 13  8 13 30.0000000  0  8G21G22G 6G28G26G 1G23G17
 -10194508.87749  -7943770.86947                  22261706.783    22261706.869
   -499512.33048   -389233.16746                  23989019.737    23989018.198
 -15049700.98149 -11727029.45746                  22450538.465    22450538.633
  -5317054.857 8  -4143160.108 8  23508378.135    23508376.792    23508378.686
 -12286129.77749  -9573604.34646                  22764854.004    22764855.159
  -3092090.05048  -2409419.63545                  24547113.908    24547113.275
 -15229037.24749 -11866779.20648                  20635345.809    20635346.206
 -22528702.87749 -17554825.37648                  20701119.285    20701119.403
 95  3 13  8 14  0.0000000  0  8G21G22G 6G28G26G 1G23G17
 -10254365.69349  -7990412.52947                  22250316.611    22250316.418
   -458305.28548   -357123.79846                  23996860.361    23996859.439
 -14949800.02849 -11649184.58646                  22469548.711    22469549.491
  -5414313.209 8  -4218945.835 8  23489870.452    23489869.172    23489870.911
 -12222769.53049  -9524232.71746                  22776911.110    22776912.360
  -3202943.42048  -2495798.89845                  24526020.604    24526018.489
 -15225432.58649 -11863970.37648                  20636031.678    20636032.136
 -22521228.81449 -17549001.42948                  20702541.455    20702541.682
 95  3 13  8 14 30.0000000  0  8G21G22G 6G28G26G 1G23G17
 -10313969.36349  -8036856.92547                  22238974.235    22238974.118
   -416760.68248   -324751.41546                  24004765.187    24004765.161
 -14849587.42149 -11571096.86846                  22488618.297    22488619.458
  -5511329.079 8  -4294542.614 8  23471408.976    23471407.685    23471409.521
 -12158948.68349  -9474502.18346                  22789056.203    22789057.172
  -3313768.70048  -2582156.25145                  24504931.593    24504929.331
 -15221480.35349 -11860890.70748                  20636783.766    20636784.241
 -22513549.27549 -17543017.37448                  20704002.723    20704003.165
 95  3 13  8 15  0.0000000  0  8G21G22G 6G28G26G 1G23G17
 -10373323.73149  -8083107.07447                  22227679.299    22227679.500
   -374880.49348   -292117.47746                  24012735.064    24012735.059
 -14749071.61549 -11492772.86646                  22507745.920    22507747.438
  -5608097.000 8  -4369946.177 8  23452994.620    23452993.281    23452994.999
 -12094668.97349  -9424414.10546                  22801287.761    22801289.468
  -3424563.52048  -2668489.88745                  24483847.940    24483845.710
 -15217176.05949 -11857536.70448                  20637602.709    20637603.162
 -22505657.62949 -17536868.03948                  20705504.347    20705504.889
 95  3 13  8 15 30.0000000  0  8G21G22G 6G28G26G 1G23G17
 -10432439.43449  -8129171.23947                  22216430.250    22216430.070
   -332684.27848   -259237.30546                  24020765.248    24020764.454
 -14648285.06849 -11414237.91746                  22526924.824    22526926.336
  -5704623.832 8  -4445161.874 8  23434626.193    23434624.663    23434626.496
 -12029940.00449  -9373975.93646                  22813604.828    22813606.984
  -3535355.02848  -2754820.95745                  24462761.209    24462762.947
 -15212538.72549 -11853923.19148                  20638485.284    20638485.645
 -22497560.47149 -17530558.56648                  20707045.409    20707045.673
 95  3 13  8 16  0.0000000  0  8G21G22G 6G28G26G 1G23G17
 -10491326.35549  -8175057.13447                  22205224.930    22205224.138
   -290190.67648   -226125.41846                  24028850.311    24028850.659
 -14547255.94549 -11335513.95146                  22546150.739    22546151.341
  -5800920.085 8  -4520197.905 8  23416301.507    23416300.243    23416301.980
 -11964781.35749  -9323202.95946                  22826004.398    22826006.138
  -3646170.24648  -2841170.43445                  24441678.375    24441675.734
 -15207593.84249 -11850070.03048                  20639426.168    20639426.609
 -22489259.31549 -17524090.13248                  20708625.074    20708625.344
 95  3 13  8 16 30.0000000  0  8G21G22G 6G28G26G 1G23G17
 -10549950.32349  -8220738.13147                  22194068.504    22194068.380
   -247374.54148   -192762.18446                  24036998.784    24036998.534
 -14445956.40449 -11256579.24446                  22565426.673    22565428.109
  -5896958.639 8  -4595033.136 8  23398025.890    23398024.613    23398026.125
 -11899172.69649  -9272079.33146                  22838489.444    22838490.786
  -3756994.70348  -2927527.14645                  24420589.347    24420586.300
 -15202332.31349 -11845970.13048                  20640427.637    20640427.988
 -22480704.57149 -17517424.09248                  20710253.082    20710253.241
 95  3 13  8 17  0.0000000  0  8G21G 6G22G28G26G 1G23G17
 -10608293.26949  -8266200.14747                  22182966.145    22182966.017
 -14344385.95849 -11177433.45346                  22584755.685    22584756.237
   -204235.60848   -159147.46346                  24045208.753    24045207.295
  -5992729.516 8  -4669659.773 8  23379801.283    23379800.195    23379801.441
 -11833112.10449  -9220603.54146                  22851060.152    22851061.508
  -3867821.59348  -3013885.76645                  24399497.201    24399496.419
 -15196756.64449 -11841625.45348                  20641488.526    20641488.954
 -22471870.30549 -17510540.24648                  20711934.032    20711934.208
 95  3 13  8 17 30.0000000  0  8G21G 6G22G28G26G 1G23G17
 -10666359.60149  -8311446.62547                  22171916.548    22171916.405
 -14242547.02049 -11098078.46046                  22604135.570    22604135.403
   -160768.96848   -125277.37046                  24053479.964    24053478.947
  -6088237.218 8  -4744081.346 8  23361626.685    23361625.603    23361626.802
 -11766614.60749  -9168787.30546                  22863714.530    22863715.219
  -3978643.11548  -3100240.21545                  24378408.725    24378407.881
 -15190885.84649 -11837050.80348                  20642605.721    20642606.034
 -22462758.18549 -17503439.89548                  20713668.028    20713668.351
 95  3 13  8 18  0.0000000  0  8G21G 6G22G28G26G 1G23G17
 -10724145.78349  -8356474.80147                  22160920.314    22160919.986
 -14140422.70649 -11018501.08346                  22623569.152    22623569.031
   -116961.72448    -91141.85746                  24061814.938    24061815.311
  -6183478.065 8  -4818294.966 8  23343502.853    23343501.780    23343502.868
 -11699677.35549  -9116628.41146                  22876451.856    22876453.019
  -4089444.09348  -3186578.63245                  24357325.143    24357323.200
 -15184720.58549 -11832246.70548                  20643778.891    20643779.286
 -22453364.38049 -17496120.05248                  20715455.665    20715455.927
 95  3 13  8 18 30.0000000  0  7G21G 6G28G26G 1G23G17
 -10781662.50749  -8401293.01447                  22149975.266    22149974.904
 -14038004.64948 -10938694.82546                  22643057.836    22643058.424
  -6278454.702 8  -4892302.717 8  23325429.384    23325428.362    23325429.602
 -11632300.30449  -9064126.79946                  22889273.775    22889274.550
  -4200214.21348  -3272893.00645                  24336245.660    24336244.478
 -15178265.67649 -11827216.90548                  20645007.077    20645007.618
 -22443707.44249 -17488595.16348                  20717293.220    20717293.572
 95  3 13  8 19  0.0000000  0  7G21G 6G28G26G 1G23G17
 -10838945.07849  -8445928.76947                  22139074.567    22139074.408
 -13935331.01548 -10858689.41146                  22662596.278    22662596.750
  -6373195.527 8  -4966126.725 8  23307400.776    23307399.661    23307400.966
 -11564513.64649  -9011306.02246                  22902173.565    22902174.118
  -4310980.74548  -3359204.58345                  24315165.393    24315166.179
 -15171545.16749 -11821980.14448                  20646286.105    20646286.612
 -22433834.64249 -17480902.07248                  20719172.142    20719172.197
 95  3 13  8 19 30.0000000  0  7G21G 6G28G26G 1G23G17
 -10895992.30349  -8490381.12947                  22128219.231    22128218.538
 -13832391.07248 -10778476.48246                  22682185.487    22682185.467
  -6467688.761 8  -5039757.797 8  23289419.218    23289418.344    23289419.542
 -11496310.82349  -8958160.97246                  22915152.128    22915152.613
  -4421743.34948  -3445513.10045                  24294087.205    24294088.983
 -15164540.20549 -11816521.73148                  20647619.063    20647619.561
 -22423762.34049 -17473053.52148                  20721088.825    20721088.786
 95  3 13  8 20  0.0000000  0  7G21G 6G28G26G 1G23G17
 -10952777.82749  -8534629.57747                  22117413.068    22117412.734
 -13729173.51148 -10698047.21946                  22701826.629    22701827.005
  -6561915.065 8  -5113180.879 8  23271488.550    23271487.516    23271488.753
 -11427669.42548  -8904674.16446                  22928214.283    22928214.389
  -4532485.81648  -3531805.93845                  24273015.141    24273015.294
 -15157220.51349 -11810818.07248                  20649011.964    20649012.363
 -22413477.41449 -17465039.30048                  20723045.684    20723045.969
 95  3 13  8 20 30.0000000  0  7G21G 6G28G26G 1G23G17
 -11009290.45549  -8578665.37547                  22106659.095    22106658.951
 -13625698.37448 -10617417.27746                  22721517.905    22721517.544
  -6655866.787 8  -5186389.992 8  23253610.163    23253609.057    23253610.384
 -11358589.39848  -8850845.58046                  22941359.587    22941359.572
  -4643197.53348  -3618074.80845                  24251947.464    24251947.754
 -15149578.06449 -11804862.91348                  20650466.319    20650466.663
 -22402972.33949 -17456853.53648                  20725044.926    20725045.212
 95  3 13  8 21  0.0000000  0  7G21G 6G28G26G 1G23G17
 -11065544.69349  -8622499.83147                  22095953.908    22095954.088
 -13521998.62248 -10536612.29446                  22741250.568    22741251.178
  -6749553.136 8  -5259392.311 8  23235782.178    23235781.018    23235782.475
 -11289085.22048  -8796686.47846                  22954585.519    22954585.867
  -4753885.71148  -3704325.33245                  24230884.342    24230884.379
 -15141620.65049 -11798662.32548                  20651980.367    20651980.893
 -22392245.51649 -17448494.97748                  20727086.182    20727086.332
 95  3 13  8 21 30.0000000  0  7G21G 6G28G26G 1G23G17
 -11121518.19249  -8666115.52547                  22085302.449    22085302.585
 -13418056.99548 -10455618.83446                  22761029.718    22761030.588
  -6842947.269 8  -5332166.935 8  23218009.991    23218008.694    23218010.298
 -11219129.28948  -8742175.36646                  22967898.048    22967898.482
  -4864525.33248  -3790538.00545                  24209829.846    24209830.364
 -15133330.34049 -11792202.34648                  20653558.059    20653558.559
 -22381268.64049 -17439941.56748                  20729174.904    20729175.053
 95  3 13  8 22  0.0000000  0  7G21G 6G28G26G 1G23G17
 -11177214.20749  -8709515.00147                  22074704.380    22074704.130
 -13313897.62648 -10374455.69946                  22780850.461    22780851.591
  -6936057.784 8  -5404720.566 8  23200291.546    23200290.460    23200291.742
 -11148738.51049  -8687325.41146                  22981293.038    22981293.579
  -4975119.69948  -3876715.47745                  24188783.830    24188784.780
 -15124734.53449 -11785504.31348                  20655193.609    20655194.250
 -22370035.59649 -17431188.54548                  20731312.297    20731312.754
 95  3 13  8 22 30.0000000  0  7G21G 6G28G26G 1G23G17
 -11232665.53849  -8752723.81647                  22064152.003    22064151.997
 -13209532.94348 -10293132.58546                  22800711.102    22800711.784
  -7028895.739 8  -5477061.822 8  23182625.002    23182623.965    23182625.177
 -11077938.56249  -8632156.62246                  22994765.274    22994766.492
  -5085689.38748  -3962873.64945                  24167741.716    24167744.210
 -15115853.33549 -11778583.89648                  20656883.830    20656884.226
 -22358557.46349 -17422244.54148                  20733496.702    20733497.024
 95  3 13  8 23  0.0000000  0  7G21G 6G28G26G 1G23G17
 -11287864.34749  -8795735.86147                  22053648.293    22053648.002
 -13104927.91748 -10211622.19446                  22820617.863    22820617.462
  -7121436.913 8  -5549171.813 8  23165015.026    23165014.067    23165015.293
 -11006718.72849  -8576660.64246                  23008317.596    23008319.042
  -5196223.15248  -4049003.86945                  24146710.217    24146710.382
 -15106660.73149 -11771420.82648                  20658633.245    20658633.421
 -22346816.21049 -17413095.51048                  20735730.899    20735731.358
 95  3 13  8 23 30.0000000  0  7G21G 6G28G26G 1G23G17
 -11342818.97149  -8838557.62547                  22043190.547    22043190.422
 -13000085.02748 -10129926.45946                  22840567.532    22840568.490
  -7213688.689 8  -5621056.293 8  23147460.125    23147459.216    23147460.371
 -10935091.18149  -8520846.96646                  23021948.128    23021949.247
  -5306731.34248  -4135114.12645                  24125680.321    24125681.436
 -15097180.67749 -11764033.76748                  20660437.399    20660437.523
 -22334829.47349 -17403755.20048                  20738011.934    20738012.454
 95  3 13  8 24  0.0000000  0  7G21G 6G28G26G 1G23G17
 -11397522.35349  -8881183.62547                  22032780.834    22032780.757
 -12894983.16248 -10048028.91746                  22860566.958    22860568.577
  -7305631.423 8  -5692699.971 8  23129964.016    23129963.201    23129964.161
 -10863045.91949  -8464707.79646                  23035658.512    23035659.114
  -5417181.67948  -4221179.30245                  24104662.860    24104663.546
 -15087395.03349 -11756408.58448                  20662299.465    20662299.741
 -22322572.08549 -17394203.99148                  20740344.607    20740344.909
 95  3 13  8 24 30.0000000  0  7G21G 6G28G26G 1G23G17
 -11452000.27049  -8923633.93847                  22022413.588    22022413.846
 -12789638.38748  -9965942.09346                  22880614.115    22880614.851
  -7397279.053 8  -5764113.691 8  23112524.073    23112523.200    23112524.379
 -10790594.02649  -8408251.76546                  23049444.562    23049446.393
  -5527594.53048  -4307215.29645                  24083652.105    24083652.672
 -15077319.45249 -11748557.47748                  20664216.664    20664217.021
 -22310060.27549 -17384454.53048                  20742725.534    20742725.869
 95  3 13  8 25  0.0000000  0  7G21G 6G28G26G 1G23G17
 -11506233.48849  -8965893.57447                  22012093.445    22012093.584
 -12684056.17548  -9883670.26946                  22900706.175    22900706.396
  -7488627.664 8  -5835294.414 8  23095140.996    23095140.130    23095141.357
 -10717722.75849  -8351468.96246                  23063312.772    23063313.717
  -5637950.92448  -4393207.26646                  24062650.334    24062652.172
 -15066968.95249 -11740492.14548                  20666186.102    20666186.452
 -22297296.07049 -17374508.39148                  20745154.484    20745154.727
 95  3 13  8 25 30.0000000  0  7G21G 6G28G26G 1G23G17
 -11560207.65149  -9007951.35547                  22001822.853    22001822.711
 -12578243.73748  -9801219.03746                  22920841.500    22920841.797
  -7579673.903 8  -5906239.519 8  23077815.476    23077814.557    23077815.847
 -10644424.94049  -8294353.76946                  23077260.300    23077261.776
  -5748228.76848  -4479138.06145                  24041667.574    24041667.508
 -15056351.95749 -11732219.16148                  20668206.529    20668207.068
 -22284278.61349 -17364364.91948                  20747631.625    20747631.918
 95  3 13  8 26  0.0000000  0  7G21G 6G28G26G 1G23G17
 -11613917.07749  -9049802.84447                  21991602.215    21991602.089
 -12472206.22948  -9718592.42746                  22941020.053    22941019.716
  -7670415.319 8  -5976947.107 8  23060547.878    23060546.993    23060548.313
 -10570711.22549  -8236914.51646                  23091287.309    23091288.778
  -5858427.84248  -4565007.45046                  24020697.466    24020697.227
 -15045447.67749 -11723722.31548                  20670281.544    20670282.086
 -22271005.75649 -17354022.43648                  20750157.236    20750157.579
 95  3 13  8 26 30.0000000  0  7G21G 6G28G26G 1G23G17
 -11667356.19749  -9091443.70347                  21981433.108    21981432.900
 -12365968.02148  -9635809.41946                  22961236.913    22961236.222
  -7760861.044 8  -6047424.285 8  23043336.678    23043335.762    23043337.039
 -10496586.88849  -8179155.28446                  23105392.879    23105394.080
  -5968557.17748  -4650822.49446                  23999739.046    23999740.485
 -15034261.87149 -11715006.10048                  20672410.253    20672410.595
 -22257497.86649 -17343496.81348                  20752727.507    20752727.850
 95  3 13  8 27  0.0000000  0  7G21G 6G28G26G 1G23G17
 -11720543.02549  -9132887.97047                  21971311.895    21971311.719
 -12259542.32448  -9552880.31846                  22981488.165    22981488.311
  -7851020.080 8  -6117678.067 8  23026180.065    23026179.115    23026180.328
 -10422073.09848  -8121092.60046                  23119571.713    23119573.287
  -6078617.03148  -4736583.42546                  23978797.345    23978796.907
 -15022796.83549 -11706072.30148                  20674591.868    20674592.175
 -22243773.98849 -17332802.88148                  20755339.257    20755339.469
 95  3 13  8 27 30.0000000  0  7G21G 6G28G26G 1G23G17
 -11773512.00349  -9174162.48247                  21961232.346    21961231.983
 -12152952.18248  -9469823.05046                  23001771.721    23001771.402
  -7940905.882 8  -6187718.941 8  23009075.315    23009074.328    23009075.510
 -10347201.99448  -8062751.48246                  23133818.241    23133820.755
  -6188640.76148  -4822316.18846                  23957859.386    23957859.820
 -15011058.07749 -11696925.21148                  20676825.649    20676825.965
 -22229850.44349 -17321953.36948                  20757988.900    20757989.137
 95  3 13  8 28  0.0000000  0  7G21G 6G28G26G 1G23G17
 -11826239.02049  -9215248.45647                  21951198.204    21951198.491
 -12046169.90948  -9386616.10646                  23022090.488    23022091.728
  -8030489.264 8  -6257524.158 8  22992028.159    22992027.180    22992028.317
 -10271952.14748  -8004115.22946                  23148139.411    23148140.290
  -6298615.61048  -4908010.87146                  23936931.894    23936932.433
 -14999020.62449 -11687545.37448                  20679116.338    20679116.803
 -22215691.50949 -17310920.44148                  20760683.139    20760683.579
 95  3 13  8 28 30.0000000  0  7G21G 6G28G26G 1G23G17
 -11878723.88149  -9256145.74747                  21941211.263    21941211.069
 -11939170.50048  -9303239.96946                  23042453.511    23042453.403
  -8119754.129 8  -6327081.184 8  22975041.642    22975040.634    22975042.082
 -10196309.55248  -7945172.95346                  23162532.996    23162534.381
  -6408530.45248  -4993658.77946                  23916015.378    23916016.291
 -14986685.96049 -11677933.94148                  20681463.428    20681464.061
 -22201274.56649 -17299686.46448                  20763426.533    20763427.093
 95  3 13  8 29  0.0000000  0  7G21G 6G28G26G 1G23G17
 -11930969.68049  -9296856.74747                  21931268.546    21931268.903
 -11831938.05448  -9219682.23446                  23062859.988    23062859.050
  -8208694.682 8  -6396385.499 8  22958116.828    22958115.741    22958117.073
 -10120292.05548  -7885938.54446                  23176999.473    23176999.872
  -6518390.72448  -5079264.18046                  23895110.346    23895110.481
 -14974064.45049 -11668098.99248                  20683865.475    20683865.811
 -22186588.68549 -17288242.92348                  20766221.180    20766221.674
 95  3 13  8 29 30.0000000  0  7G21G 6G28G26G 1G23G17
 -11982952.28049  -9337362.66047                  21921376.961    21921377.114
 -11724465.64148  -9135937.51946                  23083308.576    23083310.470
  -8297303.606 8  -6465431.403 8  22941255.085    22941253.995    22941255.279
 -10043894.84948  -7826408.25046                  23191537.273    23191537.886
  -6628190.65448  -5164822.58346                  23874216.599    23874216.356
 -14961154.73349 -11658039.46848                  20686321.996    20686322.262
 -22171624.87449 -17276582.80748                  20769068.855    20769069.112
 95  3 13  8 30  0.0000000  0  7G21G 6G28G26G 1G23G17
 -12034658.98249  -9377653.58847                  21911537.780    21911537.578
 -11616744.69948  -9051999.13446                  23103809.861    23103809.360
  -8385574.250 8  -6534213.711 8  22924457.702    22924456.566    22924457.946
  -9967109.73548  -7766575.68546                  23206149.221    23206149.760
  -6737909.23648  -5250317.54346                  23853337.387    23853337.258
 -14947947.98649 -11647748.49248                  20688835.078    20688835.551
 -22156376.28749 -17264700.79048                  20771970.524    20771970.835
 95  3 13  8 30 30.0000000  0  7G21G 6G28G26G 1G23G17
 -12086109.81449  -9417745.13347                  21901746.637    21901746.776
 -11508798.73148  -8967885.40346                  23124350.285    23124350.745
  -8473511.325 8  -6602736.096 8  22907723.806    22907722.671    22907724.118
  -9889945.76048  -7706447.90746                  23220832.130    23220833.718
  -6847545.20148  -5335748.15446                  23832473.077    23832474.192
 -14934453.41449 -11637233.23248                  20691402.995    20691403.504
 -22140856.25749 -17252607.26048                  20774923.924    20774924.068
 95  3 13  8 31  0.0000000  0  7G21G 6G28G26G 1G23G17
 -12137299.96549  -9457633.54947                  21892005.785    21892005.630
 -11400648.08448  -8883612.19846                  23144930.354    23144931.091
  -8561117.559 8  -6671000.688 8  22891052.889    22891051.629    22891053.384
  -9812405.13548  -7646026.64446                  23235588.490    23235589.233
  -6957083.83448  -5421102.90446                  23811630.172    23811629.614
 -14920679.42649 -11626500.25348                  20694024.056    20694024.605
 -22125084.01849 -17240317.20148                  20777925.349    20777925.464
 95  3 13  8 31 30.0000000  0  7G21G 6G28G26G 1G23G17
 -12188223.20349  -9497313.98347                  21882315.623    21882315.235
 -11292297.55848  -8799183.22346                  23165549.085    23165549.240
  -8648381.303 8  -6738998.398 8  22874447.144    22874445.890    22874447.595
  -9734462.14848  -7585291.84746                  23250420.386    23250421.399
  -7066500.34348  -5506362.51546                  23790808.122    23790808.434
 -14906608.88249 -11615536.19148                  20696701.506    20696702.143
 -22109052.58249 -17227825.17748                  20780976.056    20780976.272
 95  3 13  8 32  0.0000000  0  7G21G 6G28G26G 1G23G17
 -12238895.48849  -9536798.87247                  21872672.551    21872672.477
 -11183754.35048  -8714604.13046                  23186203.320    23186204.259
  -8735306.504 8  -6806732.309 8  22857905.878    22857904.565    22857905.968
  -9656124.61148  -7524249.60946                  23265327.315    23265328.583
  -7175800.20448  -5591531.23146                  23770009.753    23770009.420
 -14892253.96349 -11604350.53448                  20699433.253    20699433.727
 -22092752.38849 -17215123.73348                  20784077.911    20784078.199
 95  3 13  8 32 30.0000000  0  7G21G 6G28G26G 1G23G17
 -12289333.92549  -9576101.54447                  21863074.511    21863074.397
 -11075027.62848  -8629882.02446                  23206893.940    23206894.038
  -8821909.263 8  -6874214.973 8  22841425.908    22841424.650    22841425.973
  -9577406.04548  -7462910.47846                  23280307.505    23280308.236
  -7285002.39548  -5676623.83146                  23749228.140    23749228.832
 -14877636.79949 -11592960.53448                  20702214.886    20702215.197
 -22076206.09849 -17202230.52448                  20787226.463    20787226.932
 95  3 13  8 33  0.0000000  0  7G21G 6G28G26G 1G23G17
 -12339508.33749  -9615198.47847                  21853526.587    21853526.508
 -10966096.99748  -8545001.00946                  23227623.133    23227622.511
  -8908174.589 8  -6941434.697 8  22825010.140    22825008.848    22825010.436
  -9498296.61248  -7401266.76046                  23295360.620    23295362.408
  -7394100.08848  -5761635.00446                  23728469.081    23728468.209
 -14862741.49749 -11581353.80148                  20705049.330    20705049.762
 -22059412.60149 -17189144.68848                  20790422.190    20790422.561
 95  3 13  8 33 30.0000000  0  7G21G 6G28G26G 1G23G17
 -12389415.17349  -9654086.91947                  21844029.507    21844029.556
 -10856974.93548  -8459970.84346                  23248389.113    23248387.920
  -8994101.916 8  -7008391.047 8  22808658.680    22808657.515    22808659.049
  -9418806.79548  -7339326.65046                  23310487.708    23310489.075
  -7503125.34848  -5846589.72946                  23707721.745    23707721.430
 -14847566.65849 -11569529.25048                  20707936.940    20707937.425
 -22042367.36449 -17175862.68848                  20793665.714    20793666.089
 95  3 13  8 34  0.0000000  0  7G21G 6G28G26G 1G23G17
 -12439074.39149  -9692782.40847                  21834579.334    21834579.758
 -10747688.23048  -8374812.38746                  23269185.945    23269184.702
  -9079708.465 8  -7075097.444 8  22792368.342    22792367.188    22792368.810
  -9338975.79248  -7277120.67646                  23325678.546    23325680.500
  -7612106.12848  -5931509.80646                  23686981.879    23686982.789
 -14832142.58549 -11557510.49248                  20710871.929    20710872.521
 -22025099.86849 -17162407.49648                  20796951.694    20796951.999
 95  3 13  8 34 30.0000000  0  7G21G 6G28G26G 1G23G17
 -12488451.75749  -9731258.26947                  21825183.325    21825183.641
 -10638216.32948  -8289509.62346                  23290017.366    23290016.659
  -9164959.623 8  -7141526.910 8  22776145.587    22776144.401    22776145.951
  -9258782.50648  -7214632.40046                  23340939.221    23340940.816
  -7721021.10848  -6016378.60646                  23666257.204    23666256.929
 -14816441.44649 -11545275.83448                  20713859.963    20713860.423
 -22007605.63749 -17148775.62848                  20800280.848    20800281.011
 95  3 13  8 35  0.0000000  0  7G21G 6G28G26G 1G23G17
 -12537529.92749  -9769500.99047                  21815844.176    21815844.338
 -10528579.12748  -8204078.06646                  23310880.965    23310880.138
  -9249842.649 8  -7207669.525 8  22759992.829    22759991.691    22759992.898
  -9178239.18548  -7151871.35946                  23356265.781    23356267.687
  -7829856.18048  -6101185.14646                  23645546.386    23645546.143
 -14800464.05249 -11532825.91348                  20716900.478    20716900.766
 -21989868.32649 -17134954.35848                  20803656.111    20803656.282
 95  3 13  8 35 30.0000000  0  7G21G 6G28G26G 1G23G17
 -12586323.24149  -9807521.74247                  21806558.995    21806559.125
 -10418776.93848  -8118517.92146                  23331775.537    23331774.646
  -9334354.843 8  -7273523.181 8  22743910.608    22743909.516    22743910.926
  -9097356.36148  -7088845.77846                  23371657.200    23371658.784
  -7938588.22248  -6185911.42346                  23624855.178    23624855.449
 -14784212.24249 -11520162.16048                  20719992.824    20719993.380
 -21971868.97549 -17120928.89548                  20807081.085    20807081.387
 95  3 13  8 36  0.0000000  0  7G21G 6G28G26G 1G23G17
 -12634846.83349  -9845332.32947                  21797325.533    21797325.423
 -10308795.50848  -8032818.14246                  23352704.613    23352703.543
  -9418496.088 8  -7339087.794 8  22727898.992    22727897.993    22727899.381
  -9016143.60448  -7025563.10846                  23387110.744    23387113.017
  -8047192.41948  -6270538.06046                  23604189.316    23604188.417
 -14767699.36849 -11507294.98248                  20723135.211    20723135.576
 -21953603.52649 -17106696.08648                  20810557.078    20810557.158
